Wetterdaten: Freitag, 29.08.2014
Datum Zeit Temp. Aussen +5cm Feuchte Auss Luftdruck Regen Sonnenschein Regendauer UV Solar Windben
29.08.2014 00:00 18,3 C 16,7 C 97 % 1013,6 hPa 0,0 l/m 0 min 0 min 0,0 UV-I 0 W/m 35,4 km/h (5 Bft)
29.08.2014 00:02 18,3 C 16,7 C 97 % 1013,6 hPa 0,0 l/m 0 min 0 min 0,0 UV-I 0 W/m 28,2 km/h (4 Bft)
29.08.2014 00:05 18,3 C 16,7 C 97 % 1013,6 hPa 0,0 l/m 0 min 0 min 0,0 UV-I 0 W/m 17,7 km/h (3 Bft)
29.08.2014 00:06 18,3 C 16,7 C 97 % 1013,6 hPa 0,0 l/m 0 min 0 min 0,0 UV-I 0 W/m 24,7 km/h (4 Bft)
29.08.2014 00:08 18,3 C 16,7 C 97 % 1013,6 hPa 0,0 l/m 0 min 0 min 0,0 UV-I 0 W/m 21,3 km/h (4 Bft)
29.08.2014 00:10 18,3 C 16,7 C 97 % 1013,6 hPa 0,0 l/m 0 min 0 min 0,0 UV-I 0 W/m 24,7 km/h (4 Bft)
29.08.2014 00:12 18,3 C 16,7 C 97 % 1013,6 hPa 0,0 l/m 0 min 0 min 0,0 UV-I 0 W/m 24,7 km/h (4 Bft)
29.08.2014 00:14 18,3 C 16,7 C 97 % 1013,6 hPa 0,0 l/m 0 min 0 min 0,0 UV-I 0 W/m 21,3 km/h (4 Bft)
29.08.2014 00:16 18,3 C 16,7 C 97 % 1013,7 hPa 0,0 l/m 0 min 0 min 0,0 UV-I 0 W/m 24,7 km/h (4 Bft)
29.08.2014 00:18 18,2 C 16,7 C 97 % 1013,7 hPa 0,0 l/m 0 min 2 min 0,0 UV-I 0 W/m 24,7 km/h (4 Bft)
29.08.2014 00:20 18,2 C 16,7 C 97 % 1013,7 hPa 0,0 l/m 0 min 2 min 0,0 UV-I 0 W/m 42,4 km/h (6 Bft)
29.08.2014 00:22 18,2 C 16,7 C 97 % 1013,8 hPa 0,0 l/m 0 min 2 min 0,0 UV-I 0 W/m 21,3 km/h (4 Bft)
29.08.2014 00:24 18,2 C 16,7 C 97 % 1013,9 hPa 0,0 l/m 0 min 2 min 0,0 UV-I 0 W/m 31,7 km/h (5 Bft)
29.08.2014 00:26 18,2 C 16,7 C 97 % 1014,0 hPa 0,0 l/m 0 min 2 min 0,0 UV-I 0 W/m 31,7 km/h (5 Bft)
29.08.2014 00:28 18,1 C 16,7 C 97 % 1014,0 hPa 0,0 l/m 0 min 0 min 0,0 UV-I 0 W/m 35,4 km/h (5 Bft)
29.08.2014 00:30 18,1 C 16,1 C 97 % 1014,0 hPa 0,0 l/m 0 min 0 min 0,0 UV-I 0 W/m 31,7 km/h (5 Bft)
29.08.2014 00:32 17,9 C 16,1 C 97 % 1014,0 hPa 0,0 l/m 0 min 0 min 0,0 UV-I 0 W/m 17,7 km/h (3 Bft)
29.08.2014 00:34 17,9 C 16,1 C 97 % 1014,0 hPa 0,0 l/m 0 min 0 min 0,0 UV-I 0 W/m 17,7 km/h (3 Bft)
29.08.2014 00:36 17,9 C 16,1 C 97 % 1014,0 hPa 0,0 l/m 0 min 0 min 0,0 UV-I 0 W/m 21,3 km/h (4 Bft)
29.08.2014 00:38 17,8 C 16,1 C 97 % 1014,2 hPa 0,0 l/m 0 min 0 min 0,0 UV-I 0 W/m 38,9 km/h (6 Bft)
29.08.2014 00:40 17,7 C 16,1 C 97 % 1014,1 hPa 0,0 l/m 0 min 0 min 0,0 UV-I 0 W/m 24,7 km/h (4 Bft)
29.08.2014 00:42 17,7 C 16,1 C 97 % 1014,1 hPa 0,0 l/m 0 min 0 min 0,0 UV-I 0 W/m 10,7 km/h (2 Bft)
29.08.2014 00:44 17,7 C 16,1 C 97 % 1014,1 hPa 0,0 l/m 0 min 0 min 0,0 UV-I 0 W/m 0,0 km/h (0 Bft)
29.08.2014 00:46 17,7 C 16,1 C 97 % 1014,1 hPa 0,0 l/m 0 min 0 min 0,0 UV-I 0 W/m 14,2 km/h (3 Bft)
29.08.2014 00:48 17,7 C 16,1 C 97 % 1014,2 hPa 0,0 l/m 0 min 0 min 0,0 UV-I 0 W/m 14,2 km/h (3 Bft)
29.08.2014 00:50 17,7 C 16,1 C 97 % 1014,0 hPa 0,0 l/m 0 min 0 min 0,0 UV-I 0 W/m 17,7 km/h (3 Bft)
29.08.2014 00:52 17,7 C 16,1 C 97 % 1014,1 hPa 0,0 l/m 0 min 0 min 0,0 UV-I 0 W/m 14,2 km/h (3 Bft)
29.08.2014 00:54 17,6 C 16,1 C 97 % 1014,2 hPa 0,0 l/m 0 min 0 min 0,0 UV-I 0 W/m 17,7 km/h (3 Bft)
29.08.2014 00:56 17,6 C 16,1 C 97 % 1014,2 hPa 0,0 l/m 0 min 0 min 0,0 UV-I 0 W/m 10,7 km/h (2 Bft)
29.08.2014 00:58 17,6 C 16,1 C 97 % 1014,2 hPa 0,0 l/m 0 min 0 min 0,0 UV-I 0 W/m 7,1 km/h (2 Bft)
29.08.2014 01:00 17,6 C 15,6 C 97 % 1014,2 hPa 0,0 l/m 0 min 0 min 0,0 UV-I 0 W/m 21,3 km/h (4 Bft)
29.08.2014 01:02 17,6 C 15,6 C 97 % 1014,2 hPa 0,0 l/m 0 min 0 min 0,0 UV-I 0 W/m 17,7 km/h (3 Bft)
29.08.2014 01:04 17,6 C 15,6 C 97 % 1014,1 hPa 0,0 l/m 0 min 0 min 0,0 UV-I 0 W/m 17,7 km/h (3 Bft)
29.08.2014 01:06 17,5 C 15,6 C 97 % 1014,2 hPa 0,0 l/m 0 min 0 min 0,0 UV-I 0 W/m 3,5 km/h (1 Bft)
29.08.2014 01:08 17,5 C 15,6 C 97 % 1014,2 hPa 0,0 l/m 0 min 0 min 0,0 UV-I 0 W/m 0,0 km/h (0 Bft)
29.08.2014 01:10 17,5 C 15,6 C 97 % 1014,2 hPa 0,0 l/m 0 min 0 min 0,0 UV-I 0 W/m 7,1 km/h (2 Bft)
29.08.2014 01:12 17,4 C 15,6 C 97 % 1014,2 hPa 0,0 l/m 0 min 0 min 0,0 UV-I 0 W/m 14,2 km/h (3 Bft)
29.08.2014 01:14 17,4 C 15,6 C 97 % 1014,2 hPa 0,0 l/m 0 min 0 min 0,0 UV-I 0 W/m 0,0 km/h (0 Bft)
29.08.2014 01:16 17,4 C 15,6 C 97 % 1014,2 hPa 0,0 l/m 0 min 0 min 0,0 UV-I 0 W/m 10,7 km/h (2 Bft)
29.08.2014 01:18 17,4 C 15,6 C 97 % 1014,3 hPa 0,0 l/m 0 min 0 min 0,0 UV-I 0 W/m 10,7 km/h (2 Bft)
29.08.2014 01:20 17,4 C 15,6 C 97 % 1014,2 hPa 0,0 l/m 0 min 0 min 0,0 UV-I 0 W/m 10,7 km/h (2 Bft)
29.08.2014 01:22 17,4 C 15,6 C 97 % 1014,2 hPa 0,0 l/m 0 min 0 min 0,0 UV-I 0 W/m 0,0 km/h (0 Bft)
29.08.2014 01:24 17,4 C 15,6 C 97 % 1014,2 hPa 0,0 l/m 0 min 0 min 0,0 UV-I 0 W/m 0,0 km/h (0 Bft)
29.08.2014 01:26 17,4 C 15,6 C 97 % 1014,3 hPa 0,0 l/m 0 min 0 min 0,0 UV-I 0 W/m 0,0 km/h (0 Bft)
29.08.2014 01:28 17,4 C 15,6 C 97 % 1014,3 hPa 0,0 l/m 0 min 0 min 0,0 UV-I 0 W/m 0,0 km/h (0 Bft)
29.08.2014 01:30 17,4 C 15,6 C 97 % 1014,3 hPa 0,0 l/m 0 min 0 min 0,0 UV-I 0 W/m 0,0 km/h (0 Bft)
29.08.2014 01:32 17,3 C 15,6 C 97 % 1014,3 hPa 0,0 l/m 0 min 0 min 0,0 UV-I 0 W/m 0,0 km/h (0 Bft)
29.08.2014 01:34 17,4 C 15,6 C 97 % 1014,2 hPa 0,0 l/m 0 min 0 min 0,0 UV-I 0 W/m 14,2 km/h (3 Bft)
29.08.2014 01:36 17,3 C 15,6 C 97 % 1014,2 hPa 0,0 l/m 0 min 0 min 0,0 UV-I 0 W/m 3,5 km/h (1 Bft)
29.08.2014 01:38 17,3 C 15,6 C 97 % 1014,3 hPa 0,0 l/m 0 min 0 min 0,0 UV-I 0 W/m 10,7 km/h (2 Bft)
29.08.2014 01:40 17,3 C 15,6 C 97 % 1014,2 hPa 0,0 l/m 0 min 0 min 0,0 UV-I 0 W/m 0,0 km/h (0 Bft)
29.08.2014 01:42 17,3 C 15,6 C 97 % 1014,3 hPa 0,0 l/m 0 min 0 min 0,0 UV-I 0 W/m 0,0 km/h (0 Bft)
29.08.2014 01:44 17,3 C 15,6 C 97 % 1014,2 hPa 0,0 l/m 0 min 0 min 0,0 UV-I 0 W/m 0,0 km/h (0 Bft)
29.08.2014 01:46 17,3 C 15,6 C 97 % 1014,3 hPa 0,0 l/m 0 min 0 min 0,0 UV-I 0 W/m 7,1 km/h (2 Bft)
29.08.2014 01:48 17,3 C 15,6 C 97 % 1014,2 hPa 0,0 l/m 0 min 0 min 0,0 UV-I 0 W/m 0,0 km/h (0 Bft)
29.08.2014 01:50 17,3 C 15,6 C 97 % 1014,2 hPa 0,0 l/m 0 min 0 min 0,0 UV-I 0 W/m 3,5 km/h (1 Bft)
29.08.2014 01:52 17,3 C 15,6 C 97 % 1014,2 hPa 0,0 l/m 0 min 0 min 0,0 UV-I 0 W/m 0,0 km/h (0 Bft)
29.08.2014 01:54 17,3 C 15,6 C 97 % 1014,2 hPa 0,0 l/m 0 min 0 min 0,0 UV-I 0 W/m 17,7 km/h (3 Bft)
29.08.2014 01:56 17,3 C 15,6 C 97 % 1014,3 hPa 0,0 l/m 0 min 0 min 0,0 UV-I 0 W/m 14,2 km/h (3 Bft)
29.08.2014 01:58 17,3 C 15,6 C 97 % 1014,2 hPa 0,0 l/m 0 min 0 min 0,0 UV-I 0 W/m 0,0 km/h (0 Bft)
29.08.2014 02:00 17,3 C 15,6 C 97 % 1014,3 hPa 0,0 l/m 0 min 0 min 0,0 UV-I 0 W/m 0,0 km/h (0 Bft)
29.08.2014 02:02 17,3 C 15,6 C 97 % 1014,2 hPa 0,0 l/m 0 min 0 min 0,0 UV-I 0 W/m 3,5 km/h (1 Bft)
29.08.2014 02:04 17,3 C 15,6 C 97 % 1014,3 hPa 0,0 l/m 0 min 0 min 0,0 UV-I 0 W/m 0,0 km/h (0 Bft)
29.08.2014 02:06 17,3 C 15,6 C 97 % 1014,2 hPa 0,0 l/m 0 min 0 min 0,0 UV-I 0 W/m 10,7 km/h (2 Bft)
29.08.2014 02:08 17,3 C 15,6 C 97 % 1014,3 hPa 0,0 l/m 0 min 0 min 0,0 UV-I 0 W/m 0,0 km/h (0 Bft)
29.08.2014 02:10 17,2 C 15,6 C 97 % 1014,3 hPa 0,0 l/m 0 min 0 min 0,0 UV-I 0 W/m 0,0 km/h (0 Bft)
29.08.2014 02:12 17,2 C 15,6 C 97 % 1014,3 hPa 0,0 l/m 0 min 0 min 0,0 UV-I 0 W/m 14,2 km/h (3 Bft)
29.08.2014 02:14 17,2 C 15,6 C 97 % 1014,4 hPa 0,0 l/m 0 min 0 min 0,0 UV-I 0 W/m 21,3 km/h (4 Bft)
29.08.2014 02:16 17,2 C 15,6 C 97 % 1014,3 hPa 0,0 l/m 0 min 0 min 0,0 UV-I 0 W/m 24,7 km/h (4 Bft)
29.08.2014 02:18 17,2 C 15,6 C 97 % 1014,3 hPa 0,0 l/m 0 min 0 min 0,0 UV-I 0 W/m 3,5 km/h (1 Bft)
29.08.2014 02:20 17,2 C 15,6 C 97 % 1014,3 hPa 0,0 l/m 0 min 0 min 0,0 UV-I 0 W/m 17,7 km/h (3 Bft)
29.08.2014 02:22 17,2 C 15,6 C 97 % 1014,3 hPa 0,0 l/m 0 min 0 min 0,0 UV-I 0 W/m 17,7 km/h (3 Bft)
29.08.2014 02:24 17,2 C 15,6 C 97 % 1014,3 hPa 0,0 l/m 0 min 0 min 0,0 UV-I 0 W/m 14,2 km/h (3 Bft)
29.08.2014 02:26 17,2 C 15,6 C 97 % 1014,2 hPa 0,0 l/m 0 min 0 min 0,0 UV-I 0 W/m 3,5 km/h (1 Bft)
29.08.2014 02:28 17,2 C 15,6 C 97 % 1014,2 hPa 0,0 l/m 0 min 0 min 0,0 UV-I 0 W/m 0,0 km/h (0 Bft)
29.08.2014 02:30 17,2 C 15,6 C 97 % 1014,2 hPa 0,0 l/m 0 min 0 min 0,0 UV-I 0 W/m 14,2 km/h (3 Bft)
29.08.2014 02:32 17,2 C 15,6 C 97 % 1014,2 hPa 0,0 l/m 0 min 0 min 0,0 UV-I 0 W/m 10,7 km/h (2 Bft)
29.08.2014 02:34 17,2 C 15,6 C 97 % 1014,3 hPa 0,0 l/m 0 min 0 min 0,0 UV-I 0 W/m 0,0 km/h (0 Bft)
29.08.2014 02:36 17,2 C 15,6 C 97 % 1014,2 hPa 0,0 l/m 0 min 0 min 0,0 UV-I 0 W/m 14,2 km/h (3 Bft)
29.08.2014 02:38 17,2 C 15,6 C 97 % 1014,2 hPa 0,0 l/m 0 min 0 min 0,0 UV-I 0 W/m 17,7 km/h (3 Bft)
29.08.2014 02:40 17,1 C 15,6 C 97 % 1014,2 hPa 0,0 l/m 0 min 0 min 0,0 UV-I 0 W/m 0,0 km/h (0 Bft)
29.08.2014 02:42 17,1 C 15,6 C 97 % 1014,2 hPa 0,0 l/m 0 min 0 min 0,0 UV-I 0 W/m 17,7 km/h (3 Bft)
29.08.2014 02:44 17,1 C 15,6 C 97 % 1014,2 hPa 0,0 l/m 0 min 0 min 0,0 UV-I 0 W/m 21,3 km/h (4 Bft)
29.08.2014 02:46 17,1 C 15,6 C 97 % 1014,2 hPa 0,0 l/m 0 min 0 min 0,0 UV-I 0 W/m 14,2 km/h (3 Bft)
29.08.2014 02:48 17,1 C 15,6 C 97 % 1014,2 hPa 0,0 l/m 0 min 0 min 0,0 UV-I 0 W/m 10,7 km/h (2 Bft)
29.08.2014 02:50 17,1 C 15,6 C 97 % 1014,2 hPa 0,0 l/m 0 min 0 min 0,0 UV-I 0 W/m 14,2 km/h (3 Bft)
29.08.2014 02:52 17,1 C 15,6 C 97 % 1014,2 hPa 0,0 l/m 0 min 0 min 0,0 UV-I 0 W/m 10,7 km/h (2 Bft)
29.08.2014 02:54 17,1 C 15,6 C 97 % 1014,2 hPa 0,0 l/m 0 min 0 min 0,0 UV-I 0 W/m 10,7 km/h (2 Bft)
29.08.2014 02:56 17,0 C 15,0 C 97 % 1014,2 hPa 0,0 l/m 0 min 0 min 0,0 UV-I 0 W/m 14,2 km/h (3 Bft)
29.08.2014 02:58 17,0 C 15,0 C 97 % 1014,3 hPa 0,0 l/m 0 min 0 min 0,0 UV-I 0 W/m 14,2 km/h (3 Bft)
29.08.2014 03:00 17,0 C 15,0 C 97 % 1014,3 hPa 0,0 l/m 0 min 0 min 0,0 UV-I 0 W/m 17,7 km/h (3 Bft)
29.08.2014 03:02 17,0 C 15,0 C 97 % 1014,3 hPa 0,0 l/m 0 min 0 min 0,0 UV-I 0 W/m 14,2 km/h (3 Bft)
29.08.2014 03:04 16,9 C 15,0 C 97 % 1014,3 hPa 0,0 l/m 0 min 0 min 0,0 UV-I 0 W/m 14,2 km/h (3 Bft)
29.08.2014 03:06 16,9 C 15,0 C 97 % 1014,3 hPa 0,0 l/m 0 min 0 min 0,0 UV-I 0 W/m 17,7 km/h (3 Bft)
29.08.2014 03:08 16,9 C 15,0 C 97 % 1014,4 hPa 0,0 l/m 0 min 0 min 0,0 UV-I 0 W/m 21,3 km/h (4 Bft)
29.08.2014 03:10 16,9 C 15,0 C 97 % 1014,3 hPa 0,0 l/m 0 min 0 min 0,0 UV-I 0 W/m 14,2 km/h (3 Bft)
29.08.2014 03:12 16,8 C 15,0 C 97 % 1014,3 hPa 0,0 l/m 0 min 0 min 0,0 UV-I 0 W/m 10,7 km/h (2 Bft)
29.08.2014 03:14 16,8 C 15,0 C 97 % 1014,3 hPa 0,0 l/m 0 min 0 min 0,0 UV-I 0 W/m 14,2 km/h (3 Bft)
29.08.2014 03:16 16,8 C 15,0 C 97 % 1014,4 hPa 0,0 l/m 0 min 0 min 0,0 UV-I 0 W/m 21,3 km/h (4 Bft)
29.08.2014 03:18 16,8 C 15,0 C 97 % 1014,4 hPa 0,0 l/m 0 min 0 min 0,0 UV-I 0 W/m 17,7 km/h (3 Bft)
29.08.2014 03:20 16,7 C 15,0 C 97 % 1014,4 hPa 0,0 l/m 0 min 0 min 0,0 UV-I 0 W/m 17,7 km/h (3 Bft)
29.08.2014 03:22 16,7 C 15,0 C 97 % 1014,4 hPa 0,0 l/m 0 min 0 min 0,0 UV-I 0 W/m 17,7 km/h (3 Bft)
29.08.2014 03:24 16,7 C 15,0 C 97 % 1014,4 hPa 0,0 l/m 0 min 0 min 0,0 UV-I 0 W/m 21,3 km/h (4 Bft)
29.08.2014 03:26 16,7 C 15,0 C 97 % 1014,4 hPa 0,0 l/m 0 min 0 min 0,0 UV-I 0 W/m 17,7 km/h (3 Bft)
29.08.2014 03:28 16,6 C 15,0 C 97 % 1014,5 hPa 0,0 l/m 0 min 0 min 0,0 UV-I 0 W/m 14,2 km/h (3 Bft)
29.08.2014 03:30 16,6 C 14,4 C 97 % 1014,4 hPa 0,0 l/m 0 min 0 min 0,0 UV-I 0 W/m 24,7 km/h (4 Bft)
29.08.2014 03:32 16,5 C 14,4 C 97 % 1014,5 hPa 0,0 l/m 0 min 0 min 0,0 UV-I 0 W/m 21,3 km/h (4 Bft)
29.08.2014 03:34 16,5 C 14,4 C 97 % 1014,5 hPa 0,0 l/m 0 min 0 min 0,0 UV-I 0 W/m 21,3 km/h (4 Bft)
29.08.2014 03:36 16,4 C 14,4 C 97 % 1014,5 hPa 0,0 l/m 0 min 0 min 0,0 UV-I 0 W/m 21,3 km/h (4 Bft)
29.08.2014 03:38 16,4 C 14,4 C 97 % 1014,5 hPa 0,0 l/m 0 min 0 min 0,0 UV-I 0 W/m 21,3 km/h (4 Bft)
29.08.2014 03:40 16,4 C 14,4 C 97 % 1014,5 hPa 0,0 l/m 0 min 0 min 0,0 UV-I 0 W/m 10,7 km/h (2 Bft)
29.08.2014 03:42 16,4 C 14,4 C 96 % 1014,5 hPa 0,2 l/m 0 min 0 min 0,0 UV-I 0 W/m 14,2 km/h (3 Bft)
29.08.2014 03:44 16,3 C 14,4 C 96 % 1014,5 hPa 0,0 l/m 0 min 0 min 0,0 UV-I 0 W/m 17,7 km/h (3 Bft)
29.08.2014 03:46 16,3 C 14,4 C 96 % 1014,5 hPa 0,0 l/m 0 min 0 min 0,0 UV-I 0 W/m 14,2 km/h (3 Bft)
29.08.2014 03:48 16,3 C 14,4 C 96 % 1014,5 hPa 0,0 l/m 0 min 0 min 0,0 UV-I 0 W/m 17,7 km/h (3 Bft)
29.08.2014 03:50 16,3 C 14,4 C 97 % 1014,5 hPa 0,0 l/m 0 min 0 min 0,0 UV-I 0 W/m 10,7 km/h (2 Bft)
29.08.2014 03:52 16,3 C 14,4 C 97 % 1014,5 hPa 0,0 l/m 0 min 0 min 0,0 UV-I 0 W/m 10,7 km/h (2 Bft)
29.08.2014 03:54 16,2 C 14,4 C 97 % 1014,5 hPa 0,0 l/m 0 min 0 min 0,0 UV-I 0 W/m 17,7 km/h (3 Bft)
29.08.2014 03:56 16,2 C 14,4 C 96 % 1014,5 hPa 0,0 l/m 0 min 0 min 0,0 UV-I 0 W/m 17,7 km/h (3 Bft)
29.08.2014 03:58 16,2 C 13,9 C 96 % 1014,5 hPa 0,0 l/m 0 min 0 min 0,0 UV-I 0 W/m 17,7 km/h (3 Bft)
29.08.2014 04:00 16,1 C 13,9 C 96 % 1014,5 hPa 0,0 l/m 0 min 0 min 0,0 UV-I 0 W/m 14,2 km/h (3 Bft)
29.08.2014 04:02 16,1 C 13,9 C 96 % 1014,5 hPa 0,0 l/m 0 min 0 min 0,0 UV-I 0 W/m 14,2 km/h (3 Bft)
29.08.2014 04:04 16,1 C 13,9 C 96 % 1014,5 hPa 0,0 l/m 0 min 0 min 0,0 UV-I 0 W/m 17,7 km/h (3 Bft)
29.08.2014 04:06 16,0 C 13,9 C 96 % 1014,5 hPa 0,0 l/m 0 min 0 min 0,0 UV-I 0 W/m 0,0 km/h (0 Bft)
29.08.2014 04:08 16,0 C 13,9 C 96 % 1014,7 hPa 0,0 l/m 0 min 0 min 0,0 UV-I 0 W/m 10,7 km/h (2 Bft)
29.08.2014 04:10 15,9 C 13,9 C 96 % 1014,6 hPa 0,0 l/m 0 min 0 min 0,0 UV-I 0 W/m 0,0 km/h (0 Bft)
29.08.2014 04:12 15,9 C 13,9 C 96 % 1014,6 hPa 0,0 l/m 0 min 0 min 0,0 UV-I 0 W/m 10,7 km/h (2 Bft)
29.08.2014 04:14 15,9 C 13,9 C 96 % 1014,6 hPa 0,0 l/m 0 min 0 min 0,0 UV-I 0 W/m 14,2 km/h (3 Bft)
29.08.2014 04:16 15,8 C 13,9 C 96 % 1014,6 hPa 0,0 l/m 0 min 0 min 0,0 UV-I 0 W/m 14,2 km/h (3 Bft)
29.08.2014 04:18 15,8 C 13,9 C 96 % 1014,5 hPa 0,0 l/m 0 min 0 min 0,0 UV-I 0 W/m 10,7 km/h (2 Bft)
29.08.2014 04:20 15,8 C 13,9 C 96 % 1014,5 hPa 0,0 l/m 0 min 0 min 0,0 UV-I 0 W/m 10,7 km/h (2 Bft)
29.08.2014 04:22 15,8 C 13,9 C 96 % 1014,4 hPa 0,0 l/m 0 min 0 min 0,0 UV-I 0 W/m 17,7 km/h (3 Bft)
29.08.2014 04:24 15,7 C 13,9 C 96 % 1014,4 hPa 0,0 l/m 0 min 0 min 0,0 UV-I 0 W/m 14,2 km/h (3 Bft)
29.08.2014 04:26 15,7 C 13,9 C 96 % 1014,4 hPa 0,0 l/m 0 min 0 min 0,0 UV-I 0 W/m 3,5 km/h (1 Bft)
29.08.2014 04:28 15,7 C 13,9 C 96 % 1014,4 hPa 0,0 l/m 0 min 0 min 0,0 UV-I 0 W/m 0,0 km/h (0 Bft)
29.08.2014 04:30 15,6 C 13,9 C 96 % 1014,5 hPa 0,0 l/m 0 min 0 min 0,0 UV-I 0 W/m 0,0 km/h (0 Bft)
29.08.2014 04:32 15,6 C 13,9 C 96 % 1014,5 hPa 0,0 l/m 0 min 0 min 0,0 UV-I 0 W/m 0,0 km/h (0 Bft)
29.08.2014 04:34 15,6 C 13,9 C 96 % 1014,5 hPa 0,0 l/m 0 min 0 min 0,0 UV-I 0 W/m 14,2 km/h (3 Bft)
29.08.2014 04:36 15,6 C 13,9 C 96 % 1014,5 hPa 0,0 l/m 0 min 0 min 0,0 UV-I 0 W/m 17,7 km/h (3 Bft)
29.08.2014 04:38 15,5 C 13,9 C 96 % 1014,4 hPa 0,0 l/m 0 min 0 min 0,0 UV-I 0 W/m 17,7 km/h (3 Bft)
29.08.2014 04:40 15,5 C 13,9 C 96 % 1014,4 hPa 0,0 l/m 0 min 0 min 0,0 UV-I 0 W/m 17,7 km/h (3 Bft)
29.08.2014 04:42 15,4 C 13,9 C 96 % 1014,4 hPa 0,0 l/m 0 min 0 min 0,0 UV-I 0 W/m 17,7 km/h (3 Bft)
29.08.2014 04:44 15,4 C 13,9 C 96 % 1014,4 hPa 0,0 l/m 0 min 0 min 0,0 UV-I 0 W/m 10,7 km/h (2 Bft)
29.08.2014 04:46 15,4 C 13,3 C 96 % 1014,4 hPa 0,0 l/m 0 min 0 min 0,0 UV-I 0 W/m 21,3 km/h (4 Bft)
29.08.2014 04:48 15,4 C 13,3 C 96 % 1014,4 hPa 0,0 l/m 0 min 0 min 0,0 UV-I 0 W/m 17,7 km/h (3 Bft)
29.08.2014 04:50 15,4 C 13,3 C 96 % 1014,4 hPa 0,0 l/m 0 min 0 min 0,0 UV-I 0 W/m 14,2 km/h (3 Bft)
29.08.2014 04:52 15,4 C 13,3 C 96 % 1014,4 hPa 0,0 l/m 0 min 0 min 0,0 UV-I 0 W/m 14,2 km/h (3 Bft)
29.08.2014 04:54 15,3 C 13,3 C 96 % 1014,4 hPa 0,0 l/m 0 min 0 min 0,0 UV-I 0 W/m 10,7 km/h (2 Bft)
29.08.2014 04:56 15,3 C 13,3 C 96 % 1014,4 hPa 0,0 l/m 0 min 0 min 0,0 UV-I 0 W/m 10,7 km/h (2 Bft)
29.08.2014 04:58 15,3 C 13,3 C 96 % 1014,4 hPa 0,0 l/m 0 min 0 min 0,0 UV-I 0 W/m 10,7 km/h (2 Bft)
29.08.2014 05:00 15,3 C 13,3 C 96 % 1014,4 hPa 0,0 l/m 0 min 0 min 0,0 UV-I 0 W/m 7,1 km/h (2 Bft)
29.08.2014 05:02 15,3 C 13,3 C 96 % 1014,3 hPa 0,0 l/m 0 min 0 min 0,0 UV-I 0 W/m 0,0 km/h (0 Bft)
29.08.2014 05:04 15,2 C 13,3 C 96 % 1014,4 hPa 0,0 l/m 0 min 0 min 0,0 UV-I 0 W/m 0,0 km/h (0 Bft)
29.08.2014 05:06 15,2 C 13,3 C 96 % 1014,3 hPa 0,0 l/m 0 min 0 min 0,0 UV-I 0 W/m 0,0 km/h (0 Bft)
29.08.2014 05:08 15,2 C 13,3 C 96 % 1014,3 hPa 0,0 l/m 0 min 0 min 0,0 UV-I 0 W/m 0,0 km/h (0 Bft)
29.08.2014 05:10 15,2 C 13,3 C 96 % 1014,3 hPa 0,0 l/m 0 min 0 min 0,0 UV-I 0 W/m 0,0 km/h (0 Bft)
29.08.2014 05:12 15,2 C 13,3 C 96 % 1014,3 hPa 0,0 l/m 0 min 0 min 0,0 UV-I 0 W/m 0,0 km/h (0 Bft)
29.08.2014 05:14 15,2 C 13,3 C 96 % 1014,3 hPa 0,0 l/m 0 min 0 min 0,0 UV-I 0 W/m 0,0 km/h (0 Bft)
29.08.2014 05:16 15,1 C 13,3 C 96 % 1014,3 hPa 0,0 l/m 0 min 0 min 0,0 UV-I 0 W/m 0,0 km/h (0 Bft)
29.08.2014 05:18 15,1 C 13,3 C 96 % 1014,3 hPa 0,0 l/m 0 min 0 min 0,0 UV-I 0 W/m 0,0 km/h (0 Bft)
29.08.2014 05:20 15,1 C 13,3 C 96 % 1014,3 hPa 0,0 l/m 0 min 0 min 0,0 UV-I 0 W/m 0,0 km/h (0 Bft)
29.08.2014 05:22 15,1 C 13,3 C 96 % 1014,3 hPa 0,0 l/m 0 min 0 min 0,0 UV-I 0 W/m 0,0 km/h (0 Bft)
29.08.2014 05:24 15,1 C 13,3 C 96 % 1014,4 hPa 0,0 l/m 0 min 0 min 0,0 UV-I 0 W/m 0,0 km/h (0 Bft)
29.08.2014 05:26 15,0 C 13,3 C 96 % 1014,3 hPa 0,0 l/m 0 min 0 min 0,0 UV-I 0 W/m 14,2 km/h (3 Bft)
29.08.2014 05:28 15,0 C 13,3 C 96 % 1014,3 hPa 0,0 l/m 0 min 0 min 0,0 UV-I 0 W/m 14,2 km/h (3 Bft)
29.08.2014 05:30 15,0 C 13,3 C 96 % 1014,3 hPa 0,0 l/m 0 min 0 min 0,0 UV-I 0 W/m 14,2 km/h (3 Bft)
29.08.2014 05:32 14,9 C 13,3 C 96 % 1014,3 hPa 0,0 l/m 0 min 0 min 0,0 UV-I 0 W/m 7,1 km/h (2 Bft)
29.08.2014 05:34 14,9 C 13,3 C 96 % 1014,3 hPa 0,0 l/m 0 min 0 min 0,0 UV-I 0 W/m 10,7 km/h (2 Bft)
29.08.2014 05:36 14,9 C 13,3 C 96 % 1014,3 hPa 0,0 l/m 0 min 0 min 0,0 UV-I 0 W/m 17,7 km/h (3 Bft)
29.08.2014 05:38 14,9 C 13,3 C 96 % 1014,3 hPa 0,0 l/m 0 min 0 min 0,0 UV-I 0 W/m 14,2 km/h (3 Bft)
29.08.2014 05:40 14,9 C 12,8 C 96 % 1014,3 hPa 0,0 l/m 0 min 0 min 0,0 UV-I 0 W/m 7,1 km/h (2 Bft)
29.08.2014 05:42 14,9 C 12,8 C 96 % 1014,4 hPa 0,0 l/m 0 min 0 min 0,0 UV-I 0 W/m 7,1 km/h (2 Bft)
29.08.2014 05:44 14,9 C 12,8 C 96 % 1014,3 hPa 0,0 l/m 0 min 0 min 0,0 UV-I 0 W/m 10,7 km/h (2 Bft)
29.08.2014 05:46 14,8 C 12,8 C 96 % 1014,3 hPa 0,0 l/m 0 min 0 min 0,0 UV-I 0 W/m 14,2 km/h (3 Bft)
29.08.2014 05:48 14,8 C 12,8 C 96 % 1014,3 hPa 0,0 l/m 0 min 0 min 0,0 UV-I 0 W/m 14,2 km/h (3 Bft)
29.08.2014 05:50 14,8 C 12,8 C 96 % 1014,3 hPa 0,0 l/m 0 min 0 min 0,0 UV-I 0 W/m 21,3 km/h (4 Bft)
29.08.2014 05:52 14,8 C 12,8 C 96 % 1014,3 hPa 0,0 l/m 0 min 0 min 0,0 UV-I 0 W/m 10,7 km/h (2 Bft)
29.08.2014 05:54 14,8 C 13,3 C 96 % 1014,2 hPa 0,0 l/m 0 min 0 min 0,0 UV-I 0 W/m 10,7 km/h (2 Bft)
29.08.2014 05:56 14,7 C 12,8 C 96 % 1014,2 hPa 0,0 l/m 0 min 0 min 0,0 UV-I 0 W/m 3,5 km/h (1 Bft)
29.08.2014 05:58 14,7 C 12,8 C 96 % 1014,2 hPa 0,0 l/m 0 min 0 min 0,0 UV-I 0 W/m 3,5 km/h (1 Bft)
29.08.2014 06:00 14,7 C 12,8 C 96 % 1014,2 hPa 0,0 l/m 0 min 0 min 0,0 UV-I 0 W/m 14,2 km/h (3 Bft)
29.08.2014 06:02 14,7 C 12,8 C 96 % 1014,2 hPa 0,0 l/m 0 min 0 min 0,0 UV-I 0 W/m 10,7 km/h (2 Bft)
29.08.2014 06:06 14,7 C 12,8 C 96 % 1014,3 hPa 0,0 l/m 0 min 0 min 0,0 UV-I 0 W/m 14,2 km/h (3 Bft)
29.08.2014 06:08 14,7 C 12,8 C 96 % 1014,3 hPa 0,0 l/m 0 min 0 min 0,0 UV-I 0 W/m 10,7 km/h (2 Bft)
29.08.2014 06:10 14,7 C 12,8 C 96 % 1014,2 hPa 0,0 l/m 0 min 0 min 0,0 UV-I 0 W/m 14,2 km/h (3 Bft)
29.08.2014 06:12 14,7 C 12,8 C 96 % 1014,2 hPa 0,0 l/m 0 min 0 min 0,0 UV-I 0 W/m 3,5 km/h (1 Bft)
29.08.2014 06:14 14,6 C 12,8 C 96 % 1014,2 hPa 0,0 l/m 0 min 0 min 0,0 UV-I 0 W/m 0,0 km/h (0 Bft)
29.08.2014 06:16 14,6 C 12,8 C 96 % 1014,2 hPa 0,0 l/m 0 min 0 min 0,0 UV-I 0 W/m 0,0 km/h (0 Bft)
29.08.2014 06:18 14,6 C 12,8 C 96 % 1014,2 hPa 0,0 l/m 0 min 0 min 0,0 UV-I 0 W/m 14,2 km/h (3 Bft)
29.08.2014 06:20 14,6 C 12,8 C 96 % 1014,4 hPa 0,0 l/m 0 min 0 min 0,0 UV-I 0 W/m 10,7 km/h (2 Bft)
29.08.2014 06:22 14,6 C 12,8 C 96 % 1014,4 hPa 0,0 l/m 0 min 0 min 0,0 UV-I 0 W/m 14,2 km/h (3 Bft)
29.08.2014 06:24 14,6 C 12,8 C 96 % 1014,4 hPa 0,0 l/m 0 min 0 min 0,0 UV-I 0 W/m 10,7 km/h (2 Bft)
29.08.2014 06:26 14,6 C 12,8 C 96 % 1014,4 hPa 0,0 l/m 0 min 0 min 0,0 UV-I 0 W/m 0,0 km/h (0 Bft)
29.08.2014 06:28 14,5 C 12,8 C 96 % 1014,4 hPa 0,0 l/m 0 min 0 min 0,0 UV-I 0 W/m 3,5 km/h (1 Bft)
29.08.2014 06:30 14,5 C 12,8 C 96 % 1014,4 hPa 0,0 l/m 0 min 0 min 0,0 UV-I 0 W/m 10,7 km/h (2 Bft)
29.08.2014 06:32 14,5 C 12,8 C 96 % 1014,4 hPa 0,0 l/m 0 min 0 min 0,0 UV-I 0 W/m 7,1 km/h (2 Bft)
29.08.2014 06:34 14,5 C 12,8 C 96 % 1014,5 hPa 0,0 l/m 0 min 0 min 0,0 UV-I 0 W/m 10,7 km/h (2 Bft)
29.08.2014 06:36 14,5 C 12,8 C 96 % 1014,5 hPa 0,0 l/m 0 min 0 min 0,0 UV-I 0 W/m 17,7 km/h (3 Bft)
29.08.2014 06:38 14,4 C 12,8 C 96 % 1014,5 hPa 0,0 l/m 0 min 0 min 0,0 UV-I 0 W/m 10,7 km/h (2 Bft)
29.08.2014 06:40 14,4 C 12,8 C 96 % 1014,5 hPa 0,0 l/m 0 min 0 min 0,0 UV-I 0 W/m 10,7 km/h (2 Bft)
29.08.2014 06:42 14,4 C 12,8 C 96 % 1014,5 hPa 0,0 l/m 0 min 0 min 0,0 UV-I 0 W/m 0,0 km/h (0 Bft)
29.08.2014 06:44 14,4 C 12,8 C 96 % 1014,5 hPa 0,0 l/m 0 min 0 min 0,0 UV-I 0 W/m 0,0 km/h (0 Bft)
29.08.2014 06:46 14,4 C 12,8 C 96 % 1014,5 hPa 0,0 l/m 0 min 0 min 0,0 UV-I 0 W/m 10,7 km/h (2 Bft)
29.08.2014 06:48 14,4 C 12,8 C 96 % 1014,5 hPa 0,0 l/m 0 min 0 min 0,0 UV-I 5 W/m 0,0 km/h (0 Bft)
29.08.2014 06:50 14,4 C 12,8 C 96 % 1014,5 hPa 0,0 l/m 0 min 0 min 0,0 UV-I 6 W/m 0,0 km/h (0 Bft)
29.08.2014 06:52 14,4 C 12,8 C 96 % 1014,5 hPa 0,0 l/m 0 min 0 min 0,0 UV-I 7 W/m 14,2 km/h (3 Bft)
29.08.2014 06:54 14,4 C 12,8 C 96 % 1014,6 hPa 0,0 l/m 0 min 0 min 0,0 UV-I 8 W/m 0,0 km/h (0 Bft)
29.08.2014 06:56 14,4 C 12,8 C 96 % 1014,6 hPa 0,0 l/m 0 min 0 min 0,0 UV-I 9 W/m 0,0 km/h (0 Bft)
29.08.2014 06:58 14,4 C 12,8 C 96 % 1014,5 hPa 0,0 l/m 0 min 0 min 0,0 UV-I 11 W/m 0,0 km/h (0 Bft)
29.08.2014 07:00 14,4 C 12,8 C 96 % 1014,5 hPa 0,0 l/m 0 min 0 min 0,0 UV-I 12 W/m 0,0 km/h (0 Bft)
29.08.2014 07:02 14,4 C 12,8 C 96 % 1014,5 hPa 0,0 l/m 0 min 0 min 0,0 UV-I 13 W/m 0,0 km/h (0 Bft)
29.08.2014 07:04 14,4 C 12,8 C 96 % 1014,6 hPa 0,0 l/m 0 min 0 min 0,0 UV-I 16 W/m 0,0 km/h (0 Bft)
29.08.2014 07:06 14,4 C 12,8 C 96 % 1014,6 hPa 0,0 l/m 0 min 0 min 0,0 UV-I 18 W/m 0,0 km/h (0 Bft)
29.08.2014 07:08 14,4 C 12,8 C 96 % 1014,6 hPa 0,0 l/m 0 min 0 min 0,0 UV-I 20 W/m 0,0 km/h (0 Bft)
29.08.2014 07:10 14,4 C 12,8 C 96 % 1014,6 hPa 0,0 l/m 0 min 0 min 0,0 UV-I 22 W/m 0,0 km/h (0 Bft)
29.08.2014 07:12 14,4 C 12,8 C 96 % 1014,5 hPa 0,0 l/m 0 min 0 min 0,0 UV-I 23 W/m 0,0 km/h (0 Bft)
29.08.2014 07:14 14,4 C 13,3 C 96 % 1014,5 hPa 0,0 l/m 0 min 0 min 0,0 UV-I 23 W/m 17,7 km/h (3 Bft)
29.08.2014 07:16 14,4 C 13,3 C 96 % 1014,6 hPa 0,0 l/m 0 min 0 min 0,0 UV-I 23 W/m 14,2 km/h (3 Bft)
29.08.2014 07:18 14,4 C 13,3 C 96 % 1014,5 hPa 0,0 l/m 0 min 0 min 0,0 UV-I 24 W/m 17,7 km/h (3 Bft)
29.08.2014 07:20 14,4 C 13,3 C 96 % 1014,5 hPa 0,0 l/m 0 min 0 min 0,0 UV-I 28 W/m 14,2 km/h (3 Bft)
29.08.2014 07:22 14,4 C 13,3 C 96 % 1014,4 hPa 0,0 l/m 0 min 0 min 0,0 UV-I 32 W/m 14,2 km/h (3 Bft)
29.08.2014 07:24 14,4 C 13,3 C 96 % 1014,5 hPa 0,0 l/m 0 min 0 min 0,0 UV-I 37 W/m 10,7 km/h (2 Bft)
29.08.2014 07:26 14,4 C 13,3 C 96 % 1014,5 hPa 0,0 l/m 0 min 0 min 0,0 UV-I 44 W/m 14,2 km/h (3 Bft)
29.08.2014 07:28 14,4 C 13,3 C 96 % 1014,5 hPa 0,0 l/m 0 min 0 min 0,0 UV-I 44 W/m 17,7 km/h (3 Bft)
29.08.2014 07:30 14,5 C 13,3 C 96 % 1014,5 hPa 0,0 l/m 0 min 0 min 0,0 UV-I 36 W/m 17,7 km/h (3 Bft)
29.08.2014 07:32 14,5 C 13,3 C 96 % 1014,5 hPa 0,0 l/m 0 min 0 min 0,0 UV-I 34 W/m 14,2 km/h (3 Bft)
29.08.2014 07:34 14,5 C 13,3 C 96 % 1014,5 hPa 0,0 l/m 0 min 0 min 0,0 UV-I 34 W/m 21,3 km/h (4 Bft)
29.08.2014 07:36 14,6 C 13,3 C 96 % 1014,5 hPa 0,0 l/m 0 min 0 min 0,0 UV-I 41 W/m 14,2 km/h (3 Bft)
29.08.2014 07:38 14,6 C 13,3 C 96 % 1014,6 hPa 0,0 l/m 0 min 0 min 0,0 UV-I 49 W/m 14,2 km/h (3 Bft)
29.08.2014 07:40 14,6 C 13,3 C 96 % 1014,6 hPa 0,0 l/m 0 min 0 min 0,0 UV-I 44 W/m 7,1 km/h (2 Bft)
29.08.2014 07:42 14,6 C 13,3 C 96 % 1014,6 hPa 0,0 l/m 0 min 0 min 0,0 UV-I 40 W/m 7,1 km/h (2 Bft)
29.08.2014 07:44 14,6 C 13,3 C 96 % 1014,6 hPa 0,0 l/m 0 min 0 min 0,0 UV-I 42 W/m 10,7 km/h (2 Bft)
29.08.2014 07:46 14,7 C 13,9 C 96 % 1014,6 hPa 0,0 l/m 0 min 0 min 0,0 UV-I 43 W/m 10,7 km/h (2 Bft)
29.08.2014 07:48 14,7 C 13,3 C 96 % 1014,7 hPa 0,0 l/m 0 min 0 min 0,0 UV-I 39 W/m 14,2 km/h (3 Bft)
29.08.2014 07:50 14,7 C 13,3 C 96 % 1014,7 hPa 0,0 l/m 0 min 0 min 0,0 UV-I 35 W/m 14,2 km/h (3 Bft)
29.08.2014 07:52 14,7 C 13,3 C 96 % 1014,7 hPa 0,0 l/m 0 min 0 min 0,0 UV-I 38 W/m 10,7 km/h (2 Bft)
29.08.2014 07:54 14,7 C 13,3 C 96 % 1014,7 hPa 0,0 l/m 0 min 0 min 0,0 UV-I 43 W/m 7,1 km/h (2 Bft)
29.08.2014 07:56 14,7 C 13,9 C 96 % 1014,7 hPa 0,0 l/m 0 min 0 min 0,0 UV-I 45 W/m 0,0 km/h (0 Bft)
29.08.2014 07:58 14,7 C 13,9 C 96 % 1014,7 hPa 0,0 l/m 0 min 0 min 0,0 UV-I 40 W/m 14,2 km/h (3 Bft)
29.08.2014 08:00 14,8 C 13,9 C 96 % 1014,7 hPa 0,0 l/m 0 min 0 min 0,0 UV-I 36 W/m 14,2 km/h (3 Bft)
29.08.2014 08:02 14,8 C 13,9 C 96 % 1014,8 hPa 0,0 l/m 0 min 0 min 0,0 UV-I 32 W/m 10,7 km/h (2 Bft)
29.08.2014 08:04 14,8 C 13,9 C 96 % 1014,7 hPa 0,0 l/m 0 min 0 min 0,0 UV-I 33 W/m 10,7 km/h (2 Bft)
29.08.2014 08:06 14,8 C 13,9 C 96 % 1014,8 hPa 0,0 l/m 0 min 0 min 0,0 UV-I 31 W/m 10,7 km/h (2 Bft)
29.08.2014 08:08 14,9 C 13,9 C 96 % 1014,7 hPa 0,0 l/m 0 min 0 min 0,0 UV-I 31 W/m 24,7 km/h (4 Bft)
29.08.2014 08:10 14,9 C 13,9 C 96 % 1014,7 hPa 0,0 l/m 0 min 0 min 0,0 UV-I 33 W/m 10,7 km/h (2 Bft)
29.08.2014 08:12 14,9 C 13,9 C 96 % 1014,8 hPa 0,0 l/m 0 min 0 min 0,0 UV-I 37 W/m 21,3 km/h (4 Bft)
29.08.2014 08:14 14,9 C 13,9 C 96 % 1014,8 hPa 0,0 l/m 0 min 0 min 0,0 UV-I 39 W/m 10,7 km/h (2 Bft)
29.08.2014 08:16 14,9 C 13,9 C 96 % 1014,9 hPa 0,0 l/m 0 min 0 min 0,0 UV-I 38 W/m 3,5 km/h (1 Bft)
29.08.2014 08:18 15,0 C 13,9 C 96 % 1014,8 hPa 0,0 l/m 0 min 0 min 0,0 UV-I 36 W/m 10,7 km/h (2 Bft)
29.08.2014 08:20 15,0 C 13,9 C 96 % 1014,8 hPa 0,0 l/m 0 min 0 min 0,0 UV-I 30 W/m 14,2 km/h (3 Bft)
29.08.2014 08:22 15,1 C 13,9 C 97 % 1015,0 hPa 0,0 l/m 0 min 0 min 0,0 UV-I 27 W/m 21,3 km/h (4 Bft)
29.08.2014 08:24 15,1 C 13,9 C 97 % 1015,0 hPa 0,0 l/m 0 min 0 min 0,0 UV-I 27 W/m 3,5 km/h (1 Bft)
29.08.2014 08:26 15,1 C 13,9 C 97 % 1015,0 hPa 0,0 l/m 0 min 0 min 0,0 UV-I 29 W/m 10,7 km/h (2 Bft)
29.08.2014 08:28 15,1 C 13,9 C 97 % 1015,1 hPa 0,0 l/m 0 min 0 min 0,0 UV-I 31 W/m 10,7 km/h (2 Bft)
29.08.2014 08:30 15,1 C 13,9 C 97 % 1015,1 hPa 0,0 l/m 0 min 0 min 0,0 UV-I 37 W/m 14,2 km/h (3 Bft)
29.08.2014 08:32 15,1 C 13,9 C 97 % 1015,1 hPa 0,0 l/m 0 min 0 min 0,0 UV-I 52 W/m 7,1 km/h (2 Bft)
29.08.2014 08:34 15,2 C 13,9 C 97 % 1015,0 hPa 0,0 l/m 0 min 0 min 0,0 UV-I 64 W/m 10,7 km/h (2 Bft)
29.08.2014 08:36 15,2 C 13,9 C 97 % 1015,1 hPa 0,0 l/m 0 min 0 min 0,0 UV-I 72 W/m 17,7 km/h (3 Bft)
29.08.2014 08:38 15,2 C 14,4 C 96 % 1015,0 hPa 0,0 l/m 0 min 0 min 0,0 UV-I 76 W/m 14,2 km/h (3 Bft)
29.08.2014 08:40 15,2 C 14,4 C 96 % 1015,0 hPa 0,0 l/m 0 min 0 min 0,0 UV-I 89 W/m 14,2 km/h (3 Bft)
29.08.2014 08:42 15,3 C 14,4 C 96 % 1014,9 hPa 0,0 l/m 0 min 0 min 0,0 UV-I 95 W/m 14,2 km/h (3 Bft)
29.08.2014 08:44 15,3 C 14,4 C 96 % 1014,9 hPa 0,0 l/m 0 min 0 min 0,0 UV-I 93 W/m 17,7 km/h (3 Bft)
29.08.2014 08:46 15,3 C 14,4 C 96 % 1015,0 hPa 0,0 l/m 0 min 0 min 0,0 UV-I 94 W/m 0,0 km/h (0 Bft)
29.08.2014 08:48 15,4 C 14,4 C 96 % 1014,8 hPa 0,0 l/m 0 min 0 min 0,0 UV-I 127 W/m 17,7 km/h (3 Bft)
29.08.2014 08:50 15,4 C 14,4 C 97 % 1014,7 hPa 0,0 l/m 2 min 0 min 0,0 UV-I 193 W/m 10,7 km/h (2 Bft)
29.08.2014 08:52 15,5 C 14,4 C 97 % 1014,7 hPa 0,0 l/m 2 min 0 min 0,0 UV-I 293 W/m 3,5 km/h (1 Bft)
29.08.2014 08:54 15,5 C 15,0 C 97 % 1014,7 hPa 0,0 l/m 2 min 0 min 0,0 UV-I 239 W/m 3,5 km/h (1 Bft)
29.08.2014 08:56 15,6 C 15,0 C 97 % 1014,8 hPa 0,0 l/m 2 min 0 min 0,0 UV-I 201 W/m 10,7 km/h (2 Bft)
29.08.2014 08:58 15,6 C 15,0 C 97 % 1014,8 hPa 0,0 l/m 2 min 0 min 0,0 UV-I 190 W/m 14,2 km/h (3 Bft)
29.08.2014 09:00 15,7 C 15,0 C 97 % 1014,8 hPa 0,0 l/m 2 min 0 min 0,0 UV-I 198 W/m 10,7 km/h (2 Bft)
29.08.2014 09:02 15,7 C 15,0 C 97 % 1014,9 hPa 0,0 l/m 2 min 0 min 0,0 UV-I 255 W/m 7,1 km/h (2 Bft)
29.08.2014 09:04 15,8 C 15,0 C 97 % 1015,0 hPa 0,0 l/m 2 min 0 min 0,0 UV-I 270 W/m 14,2 km/h (3 Bft)
29.08.2014 09:06 15,8 C 15,0 C 97 % 1015,1 hPa 0,0 l/m 0 min 0 min 0,0 UV-I 125 W/m 10,7 km/h (2 Bft)
29.08.2014 09:08 15,9 C 15,0 C 97 % 1015,1 hPa 0,0 l/m 0 min 0 min 0,0 UV-I 90 W/m 0,0 km/h (0 Bft)
29.08.2014 09:10 15,9 C 15,0 C 97 % 1015,0 hPa 0,0 l/m 0 min 0 min 0,0 UV-I 78 W/m 14,2 km/h (3 Bft)
29.08.2014 09:12 16,0 C 15,0 C 97 % 1015,0 hPa 0,0 l/m 0 min 0 min 0,0 UV-I 90 W/m 10,7 km/h (2 Bft)
29.08.2014 09:14 16,1 C 15,0 C 97 % 1015,0 hPa 0,0 l/m 0 min 0 min 0,0 UV-I 99 W/m 14,2 km/h (3 Bft)
29.08.2014 09:16 16,1 C 15,0 C 97 % 1015,0 hPa 0,0 l/m 0 min 0 min 0,0 UV-I 99 W/m 14,2 km/h (3 Bft)
29.08.2014 09:18 16,2 C 15,0 C 97 % 1015,0 hPa 0,0 l/m 0 min 0 min 0,0 UV-I 107 W/m 10,7 km/h (2 Bft)
29.08.2014 09:20 16,2 C 15,0 C 97 % 1015,0 hPa 0,0 l/m 0 min 0 min 0,0 UV-I 110 W/m 14,2 km/h (3 Bft)
29.08.2014 09:22 16,2 C 15,0 C 97 % 1015,1 hPa 0,0 l/m 0 min 0 min 0,0 UV-I 105 W/m 14,2 km/h (3 Bft)
29.08.2014 09:24 16,2 C 15,0 C 97 % 1015,1 hPa 0,0 l/m 0 min 0 min 0,0 UV-I 85 W/m 17,7 km/h (3 Bft)
29.08.2014 09:26 16,2 C 15,0 C 97 % 1015,2 hPa 0,0 l/m 0 min 0 min 0,0 UV-I 76 W/m 14,2 km/h (3 Bft)
29.08.2014 09:28 16,3 C 15,0 C 97 % 1015,2 hPa 0,0 l/m 0 min 0 min 0,0 UV-I 73 W/m 7,1 km/h (2 Bft)
29.08.2014 09:30 16,3 C 15,0 C 96 % 1015,1 hPa 0,0 l/m 0 min 0 min 0,0 UV-I 90 W/m 14,2 km/h (3 Bft)
29.08.2014 09:32 16,3 C 15,0 C 96 % 1015,1 hPa 0,0 l/m 0 min 0 min 0,0 UV-I 100 W/m 24,7 km/h (4 Bft)
29.08.2014 09:34 16,3 C 15,0 C 96 % 1015,1 hPa 0,0 l/m 0 min 0 min 0,0 UV-I 92 W/m 17,7 km/h (3 Bft)
29.08.2014 09:36 16,4 C 15,0 C 96 % 1015,2 hPa 0,0 l/m 0 min 0 min 0,0 UV-I 75 W/m 21,3 km/h (4 Bft)
29.08.2014 09:38 16,4 C 15,0 C 96 % 1015,2 hPa 0,0 l/m 0 min 0 min 0,0 UV-I 68 W/m 14,2 km/h (3 Bft)
29.08.2014 09:40 16,4 C 15,0 C 96 % 1015,1 hPa 0,0 l/m 0 min 0 min 0,0 UV-I 63 W/m 17,7 km/h (3 Bft)
29.08.2014 09:42 16,4 C 15,0 C 96 % 1015,1 hPa 0,0 l/m 0 min 0 min 0,0 UV-I 67 W/m 14,2 km/h (3 Bft)
29.08.2014 09:44 16,4 C 15,0 C 96 % 1015,1 hPa 0,0 l/m 0 min 0 min 0,0 UV-I 91 W/m 14,2 km/h (3 Bft)
29.08.2014 09:46 16,5 C 15,0 C 96 % 1015,1 hPa 0,0 l/m 0 min 0 min 0,0 UV-I 136 W/m 10,7 km/h (2 Bft)
29.08.2014 09:48 16,5 C 15,6 C 96 % 1015,1 hPa 0,0 l/m 0 min 0 min 0,0 UV-I 196 W/m 10,7 km/h (2 Bft)
29.08.2014 09:50 16,5 C 15,6 C 96 % 1015,1 hPa 0,0 l/m 2 min 0 min 0,0 UV-I 233 W/m 21,3 km/h (4 Bft)
29.08.2014 09:52 16,6 C 15,6 C 96 % 1015,2 hPa 0,0 l/m 0 min 0 min 0,0 UV-I 194 W/m 24,7 km/h (4 Bft)
29.08.2014 09:54 16,7 C 15,6 C 96 % 1015,2 hPa 0,0 l/m 0 min 0 min 0,0 UV-I 175 W/m 21,3 km/h (4 Bft)
29.08.2014 09:56 16,7 C 15,6 C 96 % 1015,2 hPa 0,0 l/m 0 min 0 min 0,0 UV-I 180 W/m 17,7 km/h (3 Bft)
29.08.2014 09:58 16,8 C 16,1 C 96 % 1015,2 hPa 0,0 l/m 0 min 0 min 0,3 UV-I 220 W/m 10,7 km/h (2 Bft)
29.08.2014 10:00 16,8 C 16,1 C 96 % 1015,2 hPa 0,0 l/m 2 min 0 min 0,6 UV-I 265 W/m 21,3 km/h (4 Bft)
29.08.2014 10:02 16,9 C 16,1 C 96 % 1015,2 hPa 0,0 l/m 2 min 0 min 0,5 UV-I 263 W/m 28,2 km/h (4 Bft)
29.08.2014 10:04 17,0 C 16,1 C 95 % 1015,3 hPa 0,0 l/m 0 min 0 min 0,0 UV-I 215 W/m 28,2 km/h (4 Bft)
29.08.2014 10:06 17,1 C 15,6 C 95 % 1015,3 hPa 0,0 l/m 0 min 0 min 0,0 UV-I 190 W/m 24,7 km/h (4 Bft)
29.08.2014 10:08 17,1 C 15,6 C 95 % 1015,2 hPa 0,0 l/m 0 min 0 min 0,0 UV-I 191 W/m 28,2 km/h (4 Bft)
29.08.2014 10:10 17,1 C 15,6 C 95 % 1015,2 hPa 0,0 l/m 0 min 0 min 0,0 UV-I 181 W/m 17,7 km/h (3 Bft)
29.08.2014 10:12 17,2 C 16,1 C 95 % 1015,3 hPa 0,0 l/m 0 min 0 min 0,0 UV-I 161 W/m 21,3 km/h (4 Bft)
29.08.2014 10:14 17,2 C 15,6 C 95 % 1015,3 hPa 0,0 l/m 0 min 0 min 0,0 UV-I 147 W/m 24,7 km/h (4 Bft)
29.08.2014 10:16 17,2 C 15,6 C 94 % 1015,4 hPa 0,0 l/m 0 min 0 min 0,0 UV-I 138 W/m 14,2 km/h (3 Bft)
29.08.2014 10:18 17,2 C 15,6 C 94 % 1015,4 hPa 0,0 l/m 0 min 0 min 0,0 UV-I 135 W/m 28,2 km/h (4 Bft)
29.08.2014 10:20 17,2 C 15,6 C 94 % 1015,4 hPa 0,0 l/m 0 min 0 min 0,0 UV-I 149 W/m 21,3 km/h (4 Bft)
29.08.2014 10:22 17,3 C 15,6 C 93 % 1015,4 hPa 0,0 l/m 0 min 0 min 0,0 UV-I 159 W/m 21,3 km/h (4 Bft)
29.08.2014 10:24 17,3 C 15,6 C 93 % 1015,4 hPa 0,0 l/m 0 min 0 min 0,0 UV-I 167 W/m 21,3 km/h (4 Bft)
29.08.2014 10:26 17,3 C 15,6 C 93 % 1015,5 hPa 0,0 l/m 0 min 0 min 0,0 UV-I 168 W/m 31,7 km/h (5 Bft)
29.08.2014 10:28 17,4 C 15,6 C 93 % 1015,5 hPa 0,0 l/m 0 min 0 min 0,0 UV-I 167 W/m 21,3 km/h (4 Bft)
29.08.2014 10:30 17,4 C 15,6 C 92 % 1015,5 hPa 0,0 l/m 0 min 0 min 0,0 UV-I 173 W/m 28,2 km/h (4 Bft)
29.08.2014 10:32 17,4 C 15,6 C 92 % 1015,5 hPa 0,0 l/m 0 min 0 min 0,5 UV-I 182 W/m 24,7 km/h (4 Bft)
29.08.2014 10:34 17,4 C 15,6 C 92 % 1015,5 hPa 0,0 l/m 0 min 0 min 0,6 UV-I 195 W/m 28,2 km/h (4 Bft)
29.08.2014 10:36 17,5 C 16,1 C 92 % 1015,5 hPa 0,0 l/m 0 min 0 min 0,7 UV-I 222 W/m 31,7 km/h (5 Bft)
29.08.2014 10:38 17,5 C 16,1 C 91 % 1015,6 hPa 0,0 l/m 0 min 0 min 0,5 UV-I 213 W/m 28,2 km/h (4 Bft)
29.08.2014 10:40 17,6 C 16,1 C 91 % 1015,5 hPa 0,0 l/m 0 min 0 min 0,1 UV-I 185 W/m 28,2 km/h (4 Bft)
29.08.2014 10:42 17,6 C 16,1 C 91 % 1015,6 hPa 0,0 l/m 0 min 0 min 0,3 UV-I 178 W/m 14,2 km/h (3 Bft)
29.08.2014 10:44 17,6 C 16,1 C 90 % 1015,6 hPa 0,0 l/m 0 min 0 min 0,0 UV-I 167 W/m 17,7 km/h (3 Bft)
29.08.2014 10:46 17,6 C 16,1 C 90 % 1015,6 hPa 0,0 l/m 0 min 0 min 0,0 UV-I 163 W/m 24,7 km/h (4 Bft)
29.08.2014 10:48 17,7 C 16,1 C 90 % 1015,6 hPa 0,0 l/m 0 min 0 min 0,0 UV-I 164 W/m 21,3 km/h (4 Bft)
29.08.2014 10:50 17,7 C 16,1 C 90 % 1015,6 hPa 0,0 l/m 0 min 0 min 0,0 UV-I 166 W/m 24,7 km/h (4 Bft)
29.08.2014 10:52 17,7 C 16,1 C 89 % 1015,7 hPa 0,0 l/m 0 min 0 min 0,0 UV-I 161 W/m 17,7 km/h (3 Bft)
29.08.2014 10:54 17,7 C 16,1 C 89 % 1015,7 hPa 0,0 l/m 0 min 0 min 0,0 UV-I 149 W/m 17,7 km/h (3 Bft)
29.08.2014 10:56 17,7 C 16,1 C 89 % 1015,7 hPa 0,0 l/m 0 min 0 min 0,0 UV-I 149 W/m 14,2 km/h (3 Bft)
29.08.2014 10:58 17,8 C 16,7 C 89 % 1015,7 hPa 0,0 l/m 0 min 0 min 0,4 UV-I 176 W/m 17,7 km/h (3 Bft)
29.08.2014 11:00 17,8 C 16,7 C 89 % 1015,8 hPa 0,0 l/m 0 min 0 min 0,7 UV-I 207 W/m 24,7 km/h (4 Bft)
29.08.2014 11:02 17,8 C 16,7 C 89 % 1015,8 hPa 0,0 l/m 0 min 0 min 0,8 UV-I 221 W/m 17,7 km/h (3 Bft)
29.08.2014 11:04 17,9 C 16,7 C 89 % 1015,8 hPa 0,0 l/m 0 min 0 min 0,6 UV-I 201 W/m 14,2 km/h (3 Bft)
29.08.2014 11:06 17,9 C 16,7 C 89 % 1015,9 hPa 0,0 l/m 0 min 0 min 0,3 UV-I 166 W/m 21,3 km/h (4 Bft)
29.08.2014 11:08 17,9 C 16,7 C 88 % 1015,8 hPa 0,0 l/m 0 min 0 min 0,0 UV-I 132 W/m 21,3 km/h (4 Bft)
29.08.2014 11:10 17,9 C 16,1 C 88 % 1015,8 hPa 0,0 l/m 0 min 0 min 0,0 UV-I 111 W/m 24,7 km/h (4 Bft)
29.08.2014 11:12 17,9 C 16,1 C 87 % 1015,9 hPa 0,0 l/m 0 min 0 min 0,0 UV-I 110 W/m 24,7 km/h (4 Bft)
29.08.2014 11:14 17,9 C 16,1 C 87 % 1015,9 hPa 0,0 l/m 0 min 0 min 0,0 UV-I 133 W/m 31,7 km/h (5 Bft)
29.08.2014 11:16 17,9 C 16,1 C 87 % 1015,8 hPa 0,0 l/m 0 min 0 min 0,4 UV-I 172 W/m 17,7 km/h (3 Bft)
29.08.2014 11:18 17,9 C 16,1 C 87 % 1015,9 hPa 0,0 l/m 0 min 0 min 0,6 UV-I 187 W/m 17,7 km/h (3 Bft)
29.08.2014 11:20 17,9 C 16,1 C 87 % 1015,8 hPa 0,0 l/m 0 min 0 min 0,6 UV-I 194 W/m 31,7 km/h (5 Bft)
29.08.2014 11:22 17,9 C 16,1 C 87 % 1015,8 hPa 0,0 l/m 0 min 2 min 0,6 UV-I 220 W/m 31,7 km/h (5 Bft)
29.08.2014 11:24 17,9 C 16,1 C 87 % 1015,8 hPa 0,0 l/m 0 min 2 min 0,7 UV-I 243 W/m 24,7 km/h (4 Bft)
29.08.2014 11:26 18,0 C 15,6 C 87 % 1015,9 hPa 0,0 l/m 0 min 2 min 0,9 UV-I 274 W/m 24,7 km/h (4 Bft)
29.08.2014 11:28 18,0 C 15,6 C 87 % 1015,9 hPa 0,0 l/m 0 min 2 min 1,0 UV-I 294 W/m 35,4 km/h (5 Bft)
29.08.2014 11:30 18,0 C 15,6 C 87 % 1015,9 hPa 0,0 l/m 0 min 0 min 0,8 UV-I 249 W/m 35,4 km/h (5 Bft)
29.08.2014 11:32 18,0 C 15,6 C 87 % 1015,9 hPa 0,0 l/m 0 min 2 min 0,7 UV-I 216 W/m 28,2 km/h (4 Bft)
29.08.2014 11:34 18,0 C 15,6 C 87 % 1015,8 hPa 0,0 l/m 0 min 2 min 0,7 UV-I 203 W/m 24,7 km/h (4 Bft)
29.08.2014 11:36 17,9 C 15,6 C 86 % 1015,9 hPa 0,0 l/m 0 min 2 min 0,8 UV-I 225 W/m 31,7 km/h (5 Bft)
29.08.2014 11:38 17,9 C 15,6 C 85 % 1015,9 hPa 0,0 l/m 0 min 2 min 1,1 UV-I 254 W/m 24,7 km/h (4 Bft)
29.08.2014 11:40 17,9 C 15,6 C 85 % 1015,9 hPa 0,0 l/m 0 min 2 min 1,0 UV-I 237 W/m 21,3 km/h (4 Bft)
29.08.2014 11:42 17,8 C 15,6 C 84 % 1015,9 hPa 0,0 l/m 0 min 2 min 0,8 UV-I 209 W/m 10,7 km/h (2 Bft)
29.08.2014 11:44 17,9 C 15,6 C 84 % 1015,9 hPa 0,0 l/m 0 min 2 min 0,8 UV-I 200 W/m 17,7 km/h (3 Bft)
29.08.2014 11:46 17,9 C 15,6 C 84 % 1016,0 hPa 0,0 l/m 0 min 2 min 0,8 UV-I 223 W/m 21,3 km/h (4 Bft)
29.08.2014 11:48 17,9 C 15,6 C 84 % 1015,9 hPa 0,0 l/m 0 min 2 min 1,1 UV-I 256 W/m 21,3 km/h (4 Bft)
29.08.2014 11:50 17,9 C 15,6 C 85 % 1015,9 hPa 0,0 l/m 0 min 2 min 0,9 UV-I 223 W/m 21,3 km/h (4 Bft)
29.08.2014 11:52 18,0 C 15,6 C 85 % 1015,9 hPa 0,0 l/m 0 min 0 min 1,0 UV-I 241 W/m 24,7 km/h (4 Bft)
29.08.2014 11:54 18,0 C 16,1 C 85 % 1015,9 hPa 0,0 l/m 0 min 0 min 1,1 UV-I 264 W/m 14,2 km/h (3 Bft)
29.08.2014 11:56 18,1 C 16,1 C 86 % 1016,0 hPa 0,0 l/m 0 min 0 min 0,8 UV-I 221 W/m 28,2 km/h (4 Bft)
29.08.2014 11:58 18,1 C 15,6 C 85 % 1016,0 hPa 0,0 l/m 0 min 0 min 0,3 UV-I 156 W/m 46,0 km/h (6 Bft)
29.08.2014 12:00 17,9 C 15,6 C 84 % 1016,1 hPa 0,0 l/m 0 min 0 min 0,0 UV-I 117 W/m 28,2 km/h (4 Bft)
29.08.2014 12:02 17,9 C 15,6 C 84 % 1016,1 hPa 0,0 l/m 0 min 0 min 0,0 UV-I 112 W/m 28,2 km/h (4 Bft)
29.08.2014 12:06 17,8 C 15,0 C 84 % 1016,0 hPa 0,0 l/m 0 min 2 min 0,3 UV-I 160 W/m 31,7 km/h (5 Bft)
29.08.2014 12:08 17,8 C 15,0 C 84 % 1016,1 hPa 0,0 l/m 0 min 2 min 0,8 UV-I 216 W/m 28,2 km/h (4 Bft)
29.08.2014 12:10 17,8 C 15,6 C 84 % 1016,1 hPa 0,0 l/m 0 min 2 min 1,0 UV-I 232 W/m 35,4 km/h (5 Bft)
29.08.2014 12:12 17,7 C 15,6 C 84 % 1016,1 hPa 0,0 l/m 0 min 0 min 0,8 UV-I 206 W/m 21,3 km/h (4 Bft)
29.08.2014 12:14 17,7 C 15,6 C 85 % 1016,1 hPa 0,0 l/m 0 min 0 min 0,7 UV-I 191 W/m 24,7 km/h (4 Bft)
29.08.2014 12:16 17,7 C 15,6 C 85 % 1016,1 hPa 0,0 l/m 0 min 0 min 0,8 UV-I 205 W/m 21,3 km/h (4 Bft)
29.08.2014 12:18 17,7 C 15,6 C 85 % 1016,1 hPa 0,0 l/m 0 min 0 min 1,1 UV-I 233 W/m 21,3 km/h (4 Bft)
29.08.2014 12:20 17,7 C 15,6 C 86 % 1016,1 hPa 0,0 l/m 0 min 0 min 1,0 UV-I 223 W/m 14,2 km/h (3 Bft)
29.08.2014 12:22 17,6 C 15,6 C 86 % 1016,0 hPa 0,0 l/m 0 min 0 min 0,8 UV-I 179 W/m 14,2 km/h (3 Bft)
29.08.2014 12:24 17,6 C 15,6 C 86 % 1016,1 hPa 0,0 l/m 0 min 0 min 0,5 UV-I 143 W/m 24,7 km/h (4 Bft)
29.08.2014 12:26 17,6 C 15,6 C 87 % 1016,1 hPa 0,0 l/m 0 min 0 min 0,1 UV-I 134 W/m 17,7 km/h (3 Bft)
29.08.2014 12:28 17,6 C 15,6 C 87 % 1016,1 hPa 0,0 l/m 0 min 0 min 0,5 UV-I 137 W/m 21,3 km/h (4 Bft)
29.08.2014 12:30 17,5 C 15,6 C 87 % 1016,1 hPa 0,0 l/m 0 min 2 min 0,5 UV-I 143 W/m 31,7 km/h (5 Bft)
29.08.2014 12:32 17,4 C 15,0 C 87 % 1016,2 hPa 0,0 l/m 0 min 2 min 0,8 UV-I 164 W/m 21,3 km/h (4 Bft)
29.08.2014 12:34 17,4 C 15,6 C 87 % 1016,2 hPa 0,0 l/m 0 min 2 min 1,1 UV-I 202 W/m 28,2 km/h (4 Bft)
29.08.2014 12:36 17,4 C 15,6 C 87 % 1016,1 hPa 0,0 l/m 0 min 2 min 1,4 UV-I 241 W/m 24,7 km/h (4 Bft)
29.08.2014 12:38 17,4 C 15,6 C 88 % 1016,1 hPa 0,0 l/m 0 min 0 min 1,6 UV-I 268 W/m 17,7 km/h (3 Bft)
29.08.2014 12:40 17,4 C 15,6 C 88 % 1016,1 hPa 0,0 l/m 0 min 0 min 1,7 UV-I 308 W/m 14,2 km/h (3 Bft)
29.08.2014 12:42 17,4 C 16,1 C 88 % 1016,1 hPa 0,0 l/m 2 min 2 min 2,1 UV-I 388 W/m 21,3 km/h (4 Bft)
29.08.2014 12:44 17,5 C 16,1 C 89 % 1016,1 hPa 0,0 l/m 2 min 0 min 2,1 UV-I 368 W/m 24,7 km/h (4 Bft)
29.08.2014 12:46 17,6 C 16,1 C 89 % 1016,1 hPa 0,0 l/m 0 min 0 min 1,8 UV-I 296 W/m 14,2 km/h (3 Bft)
29.08.2014 12:48 17,6 C 16,1 C 89 % 1016,1 hPa 0,0 l/m 0 min 0 min 1,5 UV-I 272 W/m 42,4 km/h (6 Bft)
29.08.2014 12:50 17,6 C 16,1 C 89 % 1016,1 hPa 0,0 l/m 0 min 0 min 1,6 UV-I 289 W/m 35,4 km/h (5 Bft)
29.08.2014 12:52 17,6 C 16,1 C 88 % 1016,1 hPa 0,0 l/m 0 min 0 min 1,6 UV-I 296 W/m 42,4 km/h (6 Bft)
29.08.2014 12:54 17,5 C 16,1 C 87 % 1016,2 hPa 0,0 l/m 0 min 0 min 1,5 UV-I 267 W/m 35,4 km/h (5 Bft)
29.08.2014 12:56 17,4 C 16,1 C 86 % 1016,1 hPa 0,0 l/m 0 min 0 min 1,3 UV-I 245 W/m 38,9 km/h (6 Bft)
29.08.2014 12:58 17,4 C 16,1 C 86 % 1016,1 hPa 0,0 l/m 0 min 0 min 1,2 UV-I 235 W/m 42,4 km/h (6 Bft)
29.08.2014 13:00 17,4 C 16,1 C 86 % 1016,1 hPa 0,0 l/m 0 min 0 min 1,1 UV-I 219 W/m 35,4 km/h (5 Bft)
29.08.2014 13:02 17,4 C 16,1 C 86 % 1016,1 hPa 0,0 l/m 0 min 0 min 0,9 UV-I 190 W/m 31,7 km/h (5 Bft)
29.08.2014 13:04 17,4 C 16,1 C 86 % 1016,1 hPa 0,0 l/m 0 min 2 min 0,8 UV-I 179 W/m 28,2 km/h (4 Bft)
29.08.2014 13:06 17,5 C 16,1 C 86 % 1016,2 hPa 0,0 l/m 0 min 2 min 0,8 UV-I 179 W/m 31,7 km/h (5 Bft)
29.08.2014 13:08 17,5 C 15,6 C 86 % 1016,1 hPa 0,0 l/m 0 min 2 min 0,7 UV-I 168 W/m 38,9 km/h (6 Bft)
29.08.2014 13:10 17,5 C 15,0 C 86 % 1016,1 hPa 0,0 l/m 0 min 2 min 0,8 UV-I 183 W/m 38,9 km/h (6 Bft)
29.08.2014 13:12 17,5 C 15,0 C 87 % 1016,1 hPa 0,0 l/m 0 min 2 min 1,0 UV-I 230 W/m 28,2 km/h (4 Bft)
29.08.2014 13:14 17,5 C 15,0 C 87 % 1016,2 hPa 0,0 l/m 0 min 2 min 1,4 UV-I 265 W/m 31,7 km/h (5 Bft)
29.08.2014 13:16 17,5 C 15,0 C 87 % 1016,2 hPa 0,0 l/m 0 min 2 min 1,6 UV-I 278 W/m 31,7 km/h (5 Bft)
29.08.2014 13:18 17,5 C 15,6 C 87 % 1016,1 hPa 0,0 l/m 0 min 2 min 1,7 UV-I 280 W/m 21,3 km/h (4 Bft)
29.08.2014 13:20 17,5 C 15,6 C 88 % 1016,2 hPa 0,0 l/m 0 min 0 min 1,9 UV-I 320 W/m 21,3 km/h (4 Bft)
29.08.2014 13:22 17,6 C 16,1 C 88 % 1016,2 hPa 0,0 l/m 2 min 0 min 2,7 UV-I 451 W/m 21,3 km/h (4 Bft)
29.08.2014 13:24 17,7 C 16,7 C 89 % 1016,2 hPa 0,0 l/m 2 min 0 min 2,7 UV-I 440 W/m 28,2 km/h (4 Bft)
29.08.2014 13:26 17,7 C 16,7 C 89 % 1016,2 hPa 0,0 l/m 2 min 0 min 2,4 UV-I 392 W/m 31,7 km/h (5 Bft)
29.08.2014 13:28 17,7 C 16,1 C 89 % 1016,1 hPa 0,0 l/m 2 min 0 min 2,4 UV-I 409 W/m 42,4 km/h (6 Bft)
29.08.2014 13:30 17,7 C 16,7 C 89 % 1016,1 hPa 0,0 l/m 2 min 0 min 2,4 UV-I 400 W/m 28,2 km/h (4 Bft)
29.08.2014 13:32 17,8 C 16,7 C 89 % 1016,2 hPa 0,0 l/m 0 min 0 min 2,1 UV-I 338 W/m 31,7 km/h (5 Bft)
29.08.2014 13:34 17,8 C 16,1 C 89 % 1016,2 hPa 0,0 l/m 0 min 0 min 1,4 UV-I 246 W/m 35,4 km/h (5 Bft)
29.08.2014 13:36 17,8 C 16,1 C 88 % 1016,1 hPa 0,0 l/m 0 min 0 min 1,3 UV-I 219 W/m 42,4 km/h (6 Bft)
29.08.2014 13:38 17,8 C 16,1 C 87 % 1016,2 hPa 0,2 l/m 0 min 0 min 1,2 UV-I 222 W/m 49,5 km/h (6 Bft)
29.08.2014 13:40 17,8 C 15,6 C 87 % 1016,2 hPa 0,0 l/m 0 min 0 min 1,2 UV-I 225 W/m 46,0 km/h (6 Bft)
29.08.2014 13:42 17,8 C 15,6 C 87 % 1016,2 hPa 0,0 l/m 0 min 0 min 1,0 UV-I 205 W/m 35,4 km/h (5 Bft)
29.08.2014 13:44 17,8 C 16,1 C 87 % 1016,2 hPa 0,0 l/m 0 min 0 min 1,0 UV-I 218 W/m 28,2 km/h (4 Bft)
29.08.2014 13:46 17,8 C 16,1 C 87 % 1016,2 hPa 0,0 l/m 0 min 0 min 1,2 UV-I 226 W/m 31,7 km/h (5 Bft)
29.08.2014 13:48 17,8 C 16,1 C 87 % 1016,2 hPa 0,0 l/m 0 min 0 min 1,0 UV-I 199 W/m 38,9 km/h (6 Bft)
29.08.2014 13:50 17,7 C 16,1 C 86 % 1016,2 hPa 0,0 l/m 0 min 0 min 0,8 UV-I 159 W/m 31,7 km/h (5 Bft)
29.08.2014 13:52 17,6 C 16,1 C 86 % 1016,2 hPa 0,0 l/m 0 min 0 min 0,8 UV-I 163 W/m 31,7 km/h (5 Bft)
29.08.2014 13:54 17,5 C 16,1 C 86 % 1016,3 hPa 0,0 l/m 0 min 0 min 0,9 UV-I 176 W/m 28,2 km/h (4 Bft)
29.08.2014 13:56 17,4 C 16,1 C 87 % 1016,3 hPa 0,0 l/m 0 min 0 min 1,0 UV-I 197 W/m 38,9 km/h (6 Bft)
29.08.2014 13:58 17,4 C 16,1 C 87 % 1016,3 hPa 0,0 l/m 0 min 0 min 1,2 UV-I 239 W/m 31,7 km/h (5 Bft)
29.08.2014 14:00 17,4 C 16,7 C 87 % 1016,3 hPa 0,0 l/m 0 min 0 min 1,6 UV-I 296 W/m 38,9 km/h (6 Bft)
29.08.2014 14:02 17,5 C 16,7 C 86 % 1016,3 hPa 0,0 l/m 0 min 0 min 1,7 UV-I 306 W/m 28,2 km/h (4 Bft)
29.08.2014 14:04 17,5 C 16,7 C 86 % 1016,3 hPa 0,0 l/m 0 min 0 min 1,5 UV-I 266 W/m 35,4 km/h (5 Bft)
29.08.2014 14:06 17,5 C 16,1 C 86 % 1016,3 hPa 0,0 l/m 0 min 0 min 1,0 UV-I 200 W/m 28,2 km/h (4 Bft)
29.08.2014 14:08 17,4 C 16,1 C 86 % 1016,3 hPa 0,0 l/m 0 min 0 min 0,7 UV-I 173 W/m 28,2 km/h (4 Bft)
29.08.2014 14:10 17,4 C 16,1 C 87 % 1016,3 hPa 0,0 l/m 0 min 0 min 0,7 UV-I 161 W/m 24,7 km/h (4 Bft)
29.08.2014 14:12 17,3 C 16,1 C 87 % 1016,2 hPa 0,0 l/m 0 min 2 min 0,6 UV-I 147 W/m 21,3 km/h (4 Bft)
29.08.2014 14:14 17,3 C 15,6 C 87 % 1016,2 hPa 0,0 l/m 0 min 2 min 0,5 UV-I 151 W/m 28,2 km/h (4 Bft)
29.08.2014 14:16 17,3 C 15,6 C 88 % 1015,9 hPa 0,0 l/m 0 min 2 min 0,7 UV-I 175 W/m 24,7 km/h (4 Bft)
29.08.2014 14:18 17,2 C 15,6 C 89 % 1015,9 hPa 0,0 l/m 0 min 2 min 1,2 UV-I 242 W/m 17,7 km/h (3 Bft)
29.08.2014 14:20 17,2 C 15,6 C 90 % 1015,8 hPa 0,0 l/m 0 min 2 min 1,8 UV-I 320 W/m 38,9 km/h (6 Bft)
29.08.2014 14:22 17,0 C 15,6 C 90 % 1015,9 hPa 0,0 l/m 0 min 2 min 1,6 UV-I 271 W/m 24,7 km/h (4 Bft)
29.08.2014 14:24 16,9 C 15,0 C 90 % 1015,9 hPa 0,0 l/m 0 min 2 min 1,3 UV-I 203 W/m 24,7 km/h (4 Bft)
29.08.2014 14:26 16,9 C 15,6 C 90 % 1016,1 hPa 0,0 l/m 0 min 2 min 1,3 UV-I 238 W/m 28,2 km/h (4 Bft)
29.08.2014 14:28 16,9 C 15,6 C 90 % 1016,1 hPa 0,0 l/m 0 min 0 min 1,6 UV-I 301 W/m 17,7 km/h (3 Bft)
29.08.2014 14:30 16,9 C 15,6 C 90 % 1016,1 hPa 0,0 l/m 0 min 0 min 2,3 UV-I 314 W/m 28,2 km/h (4 Bft)
29.08.2014 14:32 17,1 C 16,1 C 90 % 1016,2 hPa 0,0 l/m 0 min 0 min 1,7 UV-I 313 W/m 21,3 km/h (4 Bft)
29.08.2014 14:34 17,2 C 16,1 C 90 % 1016,2 hPa 0,0 l/m 0 min 0 min 1,6 UV-I 301 W/m 28,2 km/h (4 Bft)
29.08.2014 14:36 17,3 C 16,1 C 89 % 1016,2 hPa 0,0 l/m 0 min 0 min 1,7 UV-I 319 W/m 35,4 km/h (5 Bft)
29.08.2014 14:38 17,3 C 16,1 C 88 % 1016,2 hPa 0,0 l/m 2 min 0 min 2,0 UV-I 357 W/m 24,7 km/h (4 Bft)
29.08.2014 14:40 17,3 C 16,1 C 88 % 1016,2 hPa 0,0 l/m 2 min 0 min 2,1 UV-I 362 W/m 28,2 km/h (4 Bft)
29.08.2014 14:42 17,4 C 16,1 C 88 % 1016,2 hPa 0,0 l/m 2 min 2 min 2,1 UV-I 366 W/m 31,7 km/h (5 Bft)
29.08.2014 14:44 17,5 C 16,1 C 88 % 1016,3 hPa 0,0 l/m 0 min 0 min 2,0 UV-I 348 W/m 28,2 km/h (4 Bft)
29.08.2014 14:46 17,5 C 16,1 C 86 % 1016,2 hPa 0,0 l/m 2 min 0 min 2,2 UV-I 382 W/m 31,7 km/h (5 Bft)
29.08.2014 14:48 17,6 C 16,7 C 87 % 1016,2 hPa 0,0 l/m 2 min 0 min 2,2 UV-I 398 W/m 35,4 km/h (5 Bft)
29.08.2014 14:50 17,6 C 16,7 C 85 % 1016,2 hPa 0,0 l/m 2 min 0 min 2,2 UV-I 386 W/m 38,9 km/h (6 Bft)
29.08.2014 14:52 17,7 C 16,7 C 84 % 1016,2 hPa 0,0 l/m 2 min 0 min 2,1 UV-I 370 W/m 31,7 km/h (5 Bft)
29.08.2014 14:54 17,7 C 16,7 C 83 % 1016,2 hPa 0,0 l/m 2 min 0 min 2,1 UV-I 362 W/m 35,4 km/h (5 Bft)
29.08.2014 14:56 17,7 C 16,7 C 82 % 1016,2 hPa 0,0 l/m 2 min 0 min 2,3 UV-I 449 W/m 31,7 km/h (5 Bft)
29.08.2014 14:58 17,9 C 16,7 C 83 % 1016,1 hPa 0,0 l/m 2 min 0 min 2,4 UV-I 453 W/m 24,7 km/h (4 Bft)
29.08.2014 15:00 17,9 C 16,7 C 82 % 1016,1 hPa 0,0 l/m 2 min 0 min 2,2 UV-I 411 W/m 42,4 km/h (6 Bft)
29.08.2014 15:02 18,0 C 17,2 C 82 % 1016,1 hPa 0,0 l/m 2 min 0 min 2,4 UV-I 421 W/m 38,9 km/h (6 Bft)
29.08.2014 15:04 18,1 C 17,2 C 83 % 1016,1 hPa 0,0 l/m 2 min 0 min 2,1 UV-I 379 W/m 21,3 km/h (4 Bft)
29.08.2014 15:06 18,2 C 17,8 C 82 % 1016,0 hPa 0,0 l/m 0 min 0 min 1,9 UV-I 318 W/m 28,2 km/h (4 Bft)
29.08.2014 15:08 18,2 C 17,8 C 81 % 1016,1 hPa 0,0 l/m 0 min 0 min 1,6 UV-I 301 W/m 28,2 km/h (4 Bft)
29.08.2014 15:10 18,1 C 17,8 C 81 % 1016,2 hPa 0,0 l/m 0 min 0 min 1,6 UV-I 313 W/m 31,7 km/h (5 Bft)
29.08.2014 15:12 18,1 C 17,8 C 82 % 1016,2 hPa 0,0 l/m 0 min 0 min 1,6 UV-I 299 W/m 17,7 km/h (3 Bft)
29.08.2014 15:14 18,1 C 17,8 C 82 % 1016,1 hPa 0,0 l/m 0 min 0 min 1,5 UV-I 291 W/m 38,9 km/h (6 Bft)
29.08.2014 15:16 18,2 C 17,8 C 82 % 1016,2 hPa 0,0 l/m 0 min 0 min 1,6 UV-I 311 W/m 28,2 km/h (4 Bft)
29.08.2014 15:18 18,2 C 17,8 C 83 % 1016,1 hPa 0,0 l/m 0 min 0 min 1,6 UV-I 317 W/m 24,7 km/h (4 Bft)
29.08.2014 15:20 18,2 C 17,8 C 81 % 1016,1 hPa 0,0 l/m 2 min 0 min 1,9 UV-I 352 W/m 31,7 km/h (5 Bft)
29.08.2014 15:22 18,5 C 18,3 C 82 % 1016,2 hPa 0,0 l/m 2 min 0 min 2,3 UV-I 357 W/m 21,3 km/h (4 Bft)
29.08.2014 15:24 18,7 C 18,3 C 81 % 1016,2 hPa 0,0 l/m 2 min 0 min 2,6 UV-I 374 W/m 31,7 km/h (5 Bft)
29.08.2014 15:26 18,9 C 18,3 C 81 % 1016,0 hPa 0,0 l/m 2 min 0 min 2,6 UV-I 492 W/m 24,7 km/h (4 Bft)
29.08.2014 15:28 19,1 C 18,3 C 80 % 1016,0 hPa 0,0 l/m 0 min 0 min 1,7 UV-I 291 W/m 24,7 km/h (4 Bft)
29.08.2014 15:30 19,0 C 18,3 C 78 % 1016,0 hPa 0,0 l/m 0 min 0 min 1,7 UV-I 311 W/m 38,9 km/h (6 Bft)
29.08.2014 15:32 19,0 C 18,3 C 79 % 1016,1 hPa 0,0 l/m 2 min 0 min 1,9 UV-I 357 W/m 17,7 km/h (3 Bft)
29.08.2014 15:34 19,0 C 18,3 C 78 % 1016,0 hPa 0,0 l/m 0 min 0 min 1,7 UV-I 312 W/m 24,7 km/h (4 Bft)
29.08.2014 15:36 18,9 C 18,3 C 79 % 1016,0 hPa 0,0 l/m 0 min 0 min 1,3 UV-I 228 W/m 24,7 km/h (4 Bft)
29.08.2014 15:38 18,8 C 18,3 C 78 % 1015,9 hPa 0,0 l/m 0 min 0 min 1,1 UV-I 214 W/m 31,7 km/h (5 Bft)
29.08.2014 15:40 18,7 C 18,3 C 78 % 1015,9 hPa 0,0 l/m 0 min 0 min 1,2 UV-I 288 W/m 21,3 km/h (4 Bft)
29.08.2014 15:42 18,7 C 18,3 C 80 % 1015,8 hPa 0,0 l/m 2 min 0 min 1,7 UV-I 396 W/m 31,7 km/h (5 Bft)
29.08.2014 15:44 18,7 C 18,3 C 79 % 1015,9 hPa 0,0 l/m 2 min 0 min 1,6 UV-I 349 W/m 35,4 km/h (5 Bft)
29.08.2014 15:46 18,7 C 18,3 C 79 % 1015,9 hPa 0,0 l/m 2 min 0 min 1,8 UV-I 412 W/m 28,2 km/h (4 Bft)
29.08.2014 15:48 18,7 C 18,3 C 78 % 1015,9 hPa 0,0 l/m 2 min 0 min 1,7 UV-I 370 W/m 31,7 km/h (5 Bft)
29.08.2014 15:50 18,7 C 18,3 C 79 % 1015,8 hPa 0,0 l/m 0 min 0 min 1,3 UV-I 239 W/m 24,7 km/h (4 Bft)
29.08.2014 15:52 18,7 C 18,3 C 78 % 1015,8 hPa 0,0 l/m 0 min 0 min 1,1 UV-I 221 W/m 28,2 km/h (4 Bft)
29.08.2014 15:54 18,7 C 18,3 C 78 % 1015,8 hPa 0,0 l/m 0 min 0 min 0,9 UV-I 208 W/m 21,3 km/h (4 Bft)
29.08.2014 15:56 18,7 C 17,8 C 78 % 1015,9 hPa 0,0 l/m 0 min 0 min 0,8 UV-I 215 W/m 28,2 km/h (4 Bft)
29.08.2014 15:58 18,6 C 17,8 C 78 % 1015,9 hPa 0,0 l/m 0 min 0 min 0,8 UV-I 220 W/m 24,7 km/h (4 Bft)
29.08.2014 16:00 18,6 C 17,8 C 78 % 1015,9 hPa 0,0 l/m 0 min 0 min 0,8 UV-I 217 W/m 28,2 km/h (4 Bft)
29.08.2014 16:02 18,6 C 17,8 C 78 % 1016,0 hPa 0,0 l/m 0 min 0 min 0,9 UV-I 232 W/m 31,7 km/h (5 Bft)
29.08.2014 16:04 18,6 C 17,8 C 78 % 1015,9 hPa 0,0 l/m 0 min 0 min 0,8 UV-I 206 W/m 35,4 km/h (5 Bft)
29.08.2014 16:06 18,6 C 17,8 C 78 % 1016,0 hPa 0,0 l/m 0 min 0 min 0,5 UV-I 168 W/m 38,9 km/h (6 Bft)
29.08.2014 16:08 18,5 C 17,8 C 79 % 1015,9 hPa 0,0 l/m 0 min 0 min 0,0 UV-I 142 W/m 28,2 km/h (4 Bft)
29.08.2014 16:10 18,5 C 17,8 C 79 % 1015,9 hPa 0,0 l/m 0 min 0 min 0,0 UV-I 147 W/m 31,7 km/h (5 Bft)
29.08.2014 16:12 18,4 C 17,8 C 79 % 1015,7 hPa 0,0 l/m 0 min 0 min 0,1 UV-I 164 W/m 24,7 km/h (4 Bft)
29.08.2014 16:14 18,4 C 17,8 C 79 % 1015,8 hPa 0,0 l/m 0 min 0 min 0,6 UV-I 197 W/m 21,3 km/h (4 Bft)
29.08.2014 16:16 18,5 C 17,8 C 80 % 1015,8 hPa 0,0 l/m 0 min 0 min 0,6 UV-I 216 W/m 14,2 km/h (3 Bft)
29.08.2014 16:18 18,6 C 17,8 C 80 % 1015,7 hPa 0,0 l/m 0 min 0 min 0,7 UV-I 232 W/m 17,7 km/h (3 Bft)
29.08.2014 16:20 18,7 C 18,3 C 80 % 1015,7 hPa 0,0 l/m 0 min 0 min 0,8 UV-I 261 W/m 17,7 km/h (3 Bft)
29.08.2014 16:22 18,7 C 18,3 C 80 % 1015,8 hPa 0,0 l/m 2 min 0 min 0,9 UV-I 292 W/m 21,3 km/h (4 Bft)
29.08.2014 16:24 18,7 C 18,3 C 79 % 1015,7 hPa 0,0 l/m 2 min 0 min 1,2 UV-I 321 W/m 38,9 km/h (6 Bft)
29.08.2014 16:26 18,9 C 18,9 C 80 % 1015,7 hPa 0,0 l/m 2 min 0 min 1,4 UV-I 480 W/m 21,3 km/h (4 Bft)
29.08.2014 16:28 19,1 C 18,9 C 80 % 1015,7 hPa 0,0 l/m 2 min 0 min 1,1 UV-I 300 W/m 46,0 km/h (6 Bft)
29.08.2014 16:30 19,1 C 18,3 C 78 % 1015,7 hPa 0,0 l/m 0 min 0 min 0,9 UV-I 252 W/m 31,7 km/h (5 Bft)
29.08.2014 16:32 19,1 C 18,3 C 78 % 1015,7 hPa 0,0 l/m 0 min 0 min 0,8 UV-I 248 W/m 31,7 km/h (5 Bft)
29.08.2014 16:34 19,1 C 18,3 C 79 % 1015,7 hPa 0,0 l/m 0 min 0 min 0,8 UV-I 269 W/m 21,3 km/h (4 Bft)
29.08.2014 16:36 19,1 C 18,3 C 79 % 1015,7 hPa 0,0 l/m 2 min 0 min 0,9 UV-I 293 W/m 24,7 km/h (4 Bft)
29.08.2014 16:38 19,2 C 18,9 C 79 % 1015,7 hPa 0,0 l/m 2 min 0 min 0,9 UV-I 318 W/m 31,7 km/h (5 Bft)
29.08.2014 16:40 19,2 C 18,9 C 79 % 1015,6 hPa 0,0 l/m 2 min 0 min 1,2 UV-I 394 W/m 31,7 km/h (5 Bft)
29.08.2014 16:42 19,4 C 18,9 C 79 % 1015,6 hPa 0,0 l/m 2 min 0 min 1,3 UV-I 469 W/m 24,7 km/h (4 Bft)
29.08.2014 16:44 19,6 C 18,9 C 79 % 1015,5 hPa 0,0 l/m 2 min 0 min 1,2 UV-I 395 W/m 17,7 km/h (3 Bft)
29.08.2014 16:46 19,7 C 18,9 C 78 % 1015,6 hPa 0,0 l/m 2 min 0 min 1,1 UV-I 339 W/m 21,3 km/h (4 Bft)
29.08.2014 16:48 19,7 C 18,9 C 78 % 1015,5 hPa 0,0 l/m 2 min 0 min 1,0 UV-I 321 W/m 31,7 km/h (5 Bft)
29.08.2014 16:50 19,7 C 18,9 C 77 % 1015,6 hPa 0,0 l/m 2 min 0 min 1,0 UV-I 311 W/m 24,7 km/h (4 Bft)
29.08.2014 16:52 19,6 C 18,3 C 77 % 1015,5 hPa 0,0 l/m 2 min 0 min 0,9 UV-I 296 W/m 46,0 km/h (6 Bft)
29.08.2014 16:54 19,5 C 18,3 C 77 % 1015,4 hPa 0,0 l/m 2 min 0 min 0,9 UV-I 300 W/m 31,7 km/h (5 Bft)
29.08.2014 16:56 19,6 C 18,3 C 77 % 1015,5 hPa 0,0 l/m 2 min 0 min 0,8 UV-I 282 W/m 24,7 km/h (4 Bft)
29.08.2014 16:58 19,5 C 18,3 C 76 % 1015,5 hPa 0,0 l/m 2 min 0 min 0,8 UV-I 276 W/m 31,7 km/h (5 Bft)
29.08.2014 17:00 19,5 C 18,3 C 74 % 1015,5 hPa 0,0 l/m 2 min 0 min 0,8 UV-I 273 W/m 46,0 km/h (6 Bft)
29.08.2014 17:02 19,4 C 18,3 C 75 % 1015,4 hPa 0,0 l/m 2 min 0 min 0,7 UV-I 265 W/m 38,9 km/h (6 Bft)
29.08.2014 17:04 19,4 C 18,3 C 75 % 1015,3 hPa 0,0 l/m 2 min 0 min 0,7 UV-I 262 W/m 31,7 km/h (5 Bft)
29.08.2014 17:06 19,4 C 18,3 C 74 % 1015,3 hPa 0,0 l/m 2 min 0 min 0,7 UV-I 270 W/m 38,9 km/h (6 Bft)
29.08.2014 17:08 19,4 C 18,3 C 75 % 1015,3 hPa 0,0 l/m 2 min 0 min 0,7 UV-I 285 W/m 28,2 km/h (4 Bft)
29.08.2014 17:10 19,4 C 18,3 C 75 % 1015,4 hPa 0,0 l/m 2 min 0 min 0,7 UV-I 316 W/m 21,3 km/h (4 Bft)
29.08.2014 17:12 19,6 C 18,3 C 76 % 1015,4 hPa 0,0 l/m 2 min 0 min 0,7 UV-I 330 W/m 35,4 km/h (5 Bft)
29.08.2014 17:14 19,7 C 18,3 C 76 % 1015,4 hPa 0,0 l/m 2 min 0 min 0,7 UV-I 312 W/m 21,3 km/h (4 Bft)
29.08.2014 17:16 19,8 C 18,9 C 77 % 1015,3 hPa 0,0 l/m 2 min 0 min 0,6 UV-I 285 W/m 24,7 km/h (4 Bft)
29.08.2014 17:18 19,7 C 18,9 C 76 % 1015,3 hPa 0,0 l/m 2 min 0 min 0,6 UV-I 293 W/m 35,4 km/h (5 Bft)
29.08.2014 17:20 19,7 C 18,3 C 76 % 1015,3 hPa 0,0 l/m 2 min 0 min 0,6 UV-I 299 W/m 35,4 km/h (5 Bft)
29.08.2014 17:22 19,7 C 18,3 C 76 % 1015,4 hPa 0,0 l/m 2 min 0 min 0,6 UV-I 277 W/m 24,7 km/h (4 Bft)
29.08.2014 17:24 19,7 C 18,3 C 76 % 1015,4 hPa 0,0 l/m 2 min 0 min 0,5 UV-I 261 W/m 38,9 km/h (6 Bft)
29.08.2014 17:26 19,6 C 18,3 C 76 % 1015,3 hPa 0,0 l/m 2 min 0 min 0,5 UV-I 282 W/m 35,4 km/h (5 Bft)
29.08.2014 17:28 19,6 C 18,3 C 77 % 1015,3 hPa 0,0 l/m 2 min 0 min 0,5 UV-I 249 W/m 31,7 km/h (5 Bft)
29.08.2014 17:30 19,6 C 18,3 C 76 % 1015,3 hPa 0,0 l/m 2 min 0 min 0,5 UV-I 262 W/m 31,7 km/h (5 Bft)
29.08.2014 17:32 19,6 C 18,3 C 77 % 1015,3 hPa 0,0 l/m 2 min 0 min 0,1 UV-I 239 W/m 31,7 km/h (5 Bft)
29.08.2014 17:34 19,6 C 18,3 C 76 % 1015,2 hPa 0,0 l/m 2 min 0 min 0,0 UV-I 235 W/m 28,2 km/h (4 Bft)
29.08.2014 17:36 19,6 C 18,3 C 75 % 1015,2 hPa 0,0 l/m 2 min 0 min 0,0 UV-I 233 W/m 31,7 km/h (5 Bft)
29.08.2014 17:38 19,5 C 18,3 C 76 % 1015,3 hPa 0,0 l/m 2 min 0 min 0,0 UV-I 256 W/m 31,7 km/h (5 Bft)
29.08.2014 17:40 19,5 C 18,3 C 76 % 1015,3 hPa 0,0 l/m 2 min 0 min 0,0 UV-I 226 W/m 28,2 km/h (4 Bft)
29.08.2014 17:42 19,5 C 18,3 C 76 % 1015,3 hPa 0,0 l/m 2 min 0 min 0,0 UV-I 216 W/m 21,3 km/h (4 Bft)
29.08.2014 17:44 19,5 C 18,3 C 77 % 1015,2 hPa 0,0 l/m 2 min 0 min 0,0 UV-I 238 W/m 21,3 km/h (4 Bft)
29.08.2014 17:46 19,5 C 18,3 C 76 % 1015,2 hPa 0,0 l/m 2 min 0 min 0,0 UV-I 249 W/m 28,2 km/h (4 Bft)
29.08.2014 17:48 19,5 C 18,3 C 77 % 1015,3 hPa 0,0 l/m 2 min 0 min 0,0 UV-I 256 W/m 21,3 km/h (4 Bft)
29.08.2014 17:50 19,6 C 18,3 C 77 % 1015,3 hPa 0,0 l/m 2 min 0 min 0,0 UV-I 248 W/m 21,3 km/h (4 Bft)
29.08.2014 17:52 19,6 C 18,3 C 78 % 1015,4 hPa 0,0 l/m 2 min 0 min 0,0 UV-I 260 W/m 24,7 km/h (4 Bft)
29.08.2014 17:54 19,6 C 18,3 C 77 % 1015,3 hPa 0,0 l/m 2 min 0 min 0,0 UV-I 271 W/m 28,2 km/h (4 Bft)
29.08.2014 17:56 19,6 C 18,3 C 77 % 1015,2 hPa 0,0 l/m 2 min 0 min 0,0 UV-I 246 W/m 24,7 km/h (4 Bft)
29.08.2014 17:58 19,6 C 17,8 C 76 % 1015,2 hPa 0,0 l/m 2 min 0 min 0,0 UV-I 233 W/m 31,7 km/h (5 Bft)
29.08.2014 18:00 19,6 C 17,8 C 76 % 1015,2 hPa 0,0 l/m 2 min 0 min 0,0 UV-I 220 W/m 35,4 km/h (5 Bft)
29.08.2014 18:02 19,4 C 17,8 C 76 % 1015,2 hPa 0,0 l/m 2 min 0 min 0,0 UV-I 202 W/m 28,2 km/h (4 Bft)
29.08.2014 18:06 19,3 C 17,8 C 77 % 1015,2 hPa 0,0 l/m 2 min 0 min 0,0 UV-I 199 W/m 35,4 km/h (5 Bft)
29.08.2014 18:08 19,3 C 17,8 C 77 % 1015,2 hPa 0,0 l/m 2 min 0 min 0,0 UV-I 198 W/m 24,7 km/h (4 Bft)
29.08.2014 18:10 19,3 C 17,8 C 77 % 1015,2 hPa 0,0 l/m 2 min 0 min 0,0 UV-I 178 W/m 21,3 km/h (4 Bft)
29.08.2014 18:12 19,3 C 17,8 C 77 % 1015,2 hPa 0,0 l/m 2 min 0 min 0,0 UV-I 177 W/m 21,3 km/h (4 Bft)
29.08.2014 18:14 19,3 C 17,8 C 78 % 1015,2 hPa 0,0 l/m 0 min 0 min 0,0 UV-I 144 W/m 17,7 km/h (3 Bft)
29.08.2014 18:16 19,2 C 17,8 C 77 % 1015,2 hPa 0,0 l/m 0 min 0 min 0,0 UV-I 132 W/m 24,7 km/h (4 Bft)
29.08.2014 18:18 19,2 C 17,8 C 78 % 1015,2 hPa 0,0 l/m 0 min 0 min 0,0 UV-I 125 W/m 21,3 km/h (4 Bft)
29.08.2014 18:20 19,2 C 17,8 C 78 % 1015,2 hPa 0,0 l/m 0 min 0 min 0,0 UV-I 116 W/m 21,3 km/h (4 Bft)
29.08.2014 18:22 19,1 C 17,8 C 78 % 1015,2 hPa 0,0 l/m 0 min 0 min 0,0 UV-I 117 W/m 21,3 km/h (4 Bft)
29.08.2014 18:24 19,1 C 17,2 C 79 % 1015,2 hPa 0,0 l/m 0 min 0 min 0,0 UV-I 125 W/m 21,3 km/h (4 Bft)
29.08.2014 18:26 19,0 C 17,2 C 78 % 1015,2 hPa 0,0 l/m 0 min 0 min 0,0 UV-I 123 W/m 28,2 km/h (4 Bft)
29.08.2014 18:28 19,0 C 17,2 C 78 % 1015,2 hPa 0,0 l/m 0 min 0 min 0,0 UV-I 123 W/m 21,3 km/h (4 Bft)
29.08.2014 18:30 19,1 C 17,2 C 78 % 1015,2 hPa 0,0 l/m 0 min 0 min 0,0 UV-I 134 W/m 24,7 km/h (4 Bft)
29.08.2014 18:32 19,1 C 17,2 C 78 % 1015,2 hPa 0,0 l/m 2 min 0 min 0,0 UV-I 148 W/m 28,2 km/h (4 Bft)
29.08.2014 18:34 19,1 C 17,2 C 77 % 1015,2 hPa 0,0 l/m 2 min 0 min 0,0 UV-I 155 W/m 24,7 km/h (4 Bft)
29.08.2014 18:36 19,1 C 17,8 C 78 % 1015,1 hPa 0,0 l/m 2 min 0 min 0,0 UV-I 152 W/m 21,3 km/h (4 Bft)
29.08.2014 18:38 19,1 C 17,8 C 77 % 1015,2 hPa 0,0 l/m 2 min 0 min 0,0 UV-I 160 W/m 24,7 km/h (4 Bft)
29.08.2014 18:40 19,1 C 17,8 C 77 % 1015,2 hPa 0,0 l/m 2 min 0 min 0,0 UV-I 164 W/m 24,7 km/h (4 Bft)
29.08.2014 18:42 19,1 C 17,8 C 77 % 1015,1 hPa 0,0 l/m 2 min 0 min 0,0 UV-I 142 W/m 28,2 km/h (4 Bft)
29.08.2014 18:44 19,2 C 17,8 C 78 % 1015,1 hPa 0,0 l/m 2 min 0 min 0,0 UV-I 128 W/m 21,3 km/h (4 Bft)
29.08.2014 18:46 19,2 C 17,8 C 78 % 1015,1 hPa 0,0 l/m 2 min 0 min 0,0 UV-I 126 W/m 24,7 km/h (4 Bft)
29.08.2014 18:48 19,1 C 17,2 C 77 % 1015,2 hPa 0,0 l/m 0 min 0 min 0,0 UV-I 122 W/m 31,7 km/h (5 Bft)
29.08.2014 18:50 19,1 C 17,2 C 77 % 1015,2 hPa 0,0 l/m 0 min 0 min 0,0 UV-I 112 W/m 28,2 km/h (4 Bft)
29.08.2014 18:52 19,1 C 17,2 C 77 % 1015,2 hPa 0,0 l/m 0 min 0 min 0,0 UV-I 105 W/m 28,2 km/h (4 Bft)
29.08.2014 18:54 19,0 C 17,2 C 77 % 1015,2 hPa 0,0 l/m 0 min 0 min 0,0 UV-I 101 W/m 21,3 km/h (4 Bft)
29.08.2014 18:56 18,9 C 17,2 C 77 % 1015,1 hPa 0,0 l/m 0 min 0 min 0,0 UV-I 98 W/m 10,7 km/h (2 Bft)
29.08.2014 18:58 18,9 C 17,2 C 78 % 1015,2 hPa 0,0 l/m 0 min 0 min 0,0 UV-I 95 W/m 14,2 km/h (3 Bft)
29.08.2014 19:00 18,9 C 17,2 C 77 % 1015,2 hPa 0,0 l/m 0 min 0 min 0,0 UV-I 97 W/m 14,2 km/h (3 Bft)
29.08.2014 19:02 18,9 C 17,2 C 78 % 1015,2 hPa 0,0 l/m 0 min 0 min 0,0 UV-I 95 W/m 24,7 km/h (4 Bft)
29.08.2014 19:04 18,8 C 17,2 C 77 % 1015,2 hPa 0,0 l/m 0 min 0 min 0,0 UV-I 91 W/m 21,3 km/h (4 Bft)
29.08.2014 19:06 18,8 C 17,2 C 77 % 1015,2 hPa 0,0 l/m 0 min 0 min 0,0 UV-I 84 W/m 14,2 km/h (3 Bft)
29.08.2014 19:08 18,8 C 17,2 C 77 % 1015,2 hPa 0,0 l/m 0 min 0 min 0,0 UV-I 84 W/m 14,2 km/h (3 Bft)
29.08.2014 19:10 18,7 C 17,2 C 78 % 1015,2 hPa 0,0 l/m 0 min 0 min 0,0 UV-I 79 W/m 14,2 km/h (3 Bft)
29.08.2014 19:12 18,7 C 17,2 C 78 % 1015,1 hPa 0,0 l/m 0 min 0 min 0,0 UV-I 81 W/m 14,2 km/h (3 Bft)
29.08.2014 19:14 18,7 C 17,2 C 78 % 1015,2 hPa 0,0 l/m 0 min 0 min 0,0 UV-I 74 W/m 14,2 km/h (3 Bft)
29.08.2014 19:16 18,7 C 16,7 C 79 % 1015,1 hPa 0,0 l/m 0 min 0 min 0,0 UV-I 67 W/m 3,5 km/h (1 Bft)
29.08.2014 19:18 18,6 C 16,7 C 79 % 1015,1 hPa 0,0 l/m 0 min 0 min 0,0 UV-I 62 W/m 7,1 km/h (2 Bft)
29.08.2014 19:20 18,6 C 16,7 C 79 % 1015,2 hPa 0,0 l/m 0 min 0 min 0,0 UV-I 55 W/m 3,5 km/h (1 Bft)
29.08.2014 19:22 18,6 C 16,7 C 79 % 1015,2 hPa 0,0 l/m 0 min 0 min 0,0 UV-I 50 W/m 10,7 km/h (2 Bft)
29.08.2014 19:24 18,5 C 16,7 C 79 % 1015,2 hPa 0,0 l/m 0 min 0 min 0,0 UV-I 45 W/m 3,5 km/h (1 Bft)
29.08.2014 19:26 18,5 C 16,7 C 79 % 1015,2 hPa 0,0 l/m 0 min 0 min 0,0 UV-I 41 W/m 0,0 km/h (0 Bft)
29.08.2014 19:28 18,4 C 16,7 C 80 % 1015,2 hPa 0,0 l/m 0 min 0 min 0,0 UV-I 39 W/m 0,0 km/h (0 Bft)
29.08.2014 19:30 18,4 C 16,7 C 80 % 1015,1 hPa 0,0 l/m 0 min 0 min 0,0 UV-I 34 W/m 10,7 km/h (2 Bft)
29.08.2014 19:32 18,3 C 16,7 C 80 % 1015,1 hPa 0,0 l/m 0 min 0 min 0,0 UV-I 31 W/m 14,2 km/h (3 Bft)
29.08.2014 19:34 18,2 C 16,1 C 81 % 1015,0 hPa 0,0 l/m 0 min 0 min 0,0 UV-I 30 W/m 3,5 km/h (1 Bft)
29.08.2014 19:36 18,1 C 16,1 C 81 % 1015,1 hPa 0,0 l/m 0 min 0 min 0,0 UV-I 30 W/m 0,0 km/h (0 Bft)
29.08.2014 19:38 18,1 C 16,1 C 81 % 1015,1 hPa 0,0 l/m 0 min 0 min 0,0 UV-I 32 W/m 0,0 km/h (0 Bft)
29.08.2014 19:40 18,1 C 16,1 C 81 % 1015,1 hPa 0,0 l/m 0 min 0 min 0,0 UV-I 30 W/m 3,5 km/h (1 Bft)
29.08.2014 19:42 18,1 C 16,1 C 81 % 1015,1 hPa 0,0 l/m 0 min 0 min 0,0 UV-I 30 W/m 17,7 km/h (3 Bft)
29.08.2014 19:44 18,0 C 16,1 C 81 % 1015,1 hPa 0,0 l/m 0 min 0 min 0,0 UV-I 30 W/m 10,7 km/h (2 Bft)
29.08.2014 19:46 18,0 C 16,1 C 81 % 1015,0 hPa 0,0 l/m 0 min 0 min 0,0 UV-I 30 W/m 3,5 km/h (1 Bft)
29.08.2014 19:48 18,0 C 16,1 C 81 % 1015,1 hPa 0,0 l/m 0 min 0 min 0,0 UV-I 30 W/m 10,7 km/h (2 Bft)
29.08.2014 19:50 18,0 C 16,1 C 81 % 1015,0 hPa 0,0 l/m 0 min 0 min 0,0 UV-I 30 W/m 0,0 km/h (0 Bft)
29.08.2014 19:52 18,0 C 16,1 C 81 % 1015,0 hPa 0,0 l/m 0 min 0 min 0,0 UV-I 29 W/m 0,0 km/h (0 Bft)
29.08.2014 19:54 17,9 C 16,1 C 81 % 1015,0 hPa 0,0 l/m 0 min 0 min 0,0 UV-I 27 W/m 0,0 km/h (0 Bft)
29.08.2014 19:56 17,9 C 15,6 C 81 % 1015,0 hPa 0,0 l/m 0 min 0 min 0,0 UV-I 25 W/m 3,5 km/h (1 Bft)
29.08.2014 19:58 17,8 C 15,6 C 81 % 1015,0 hPa 0,0 l/m 0 min 0 min 0,0 UV-I 23 W/m 14,2 km/h (3 Bft)
29.08.2014 20:00 17,8 C 15,6 C 81 % 1015,0 hPa 0,0 l/m 0 min 0 min 0,0 UV-I 20 W/m 0,0 km/h (0 Bft)
29.08.2014 20:02 17,8 C 15,6 C 82 % 1015,0 hPa 0,0 l/m 0 min 0 min 0,0 UV-I 17 W/m 0,0 km/h (0 Bft)
29.08.2014 20:04 17,8 C 15,6 C 82 % 1015,1 hPa 0,0 l/m 0 min 0 min 0,0 UV-I 15 W/m 0,0 km/h (0 Bft)
29.08.2014 20:06 17,8 C 15,6 C 82 % 1015,0 hPa 0,0 l/m 0 min 0 min 0,0 UV-I 13 W/m 0,0 km/h (0 Bft)
29.08.2014 20:08 17,8 C 15,6 C 82 % 1015,1 hPa 0,0 l/m 0 min 0 min 0,0 UV-I 12 W/m 0,0 km/h (0 Bft)
29.08.2014 20:10 17,8 C 15,0 C 82 % 1015,2 hPa 0,0 l/m 0 min 0 min 0,0 UV-I 11 W/m 0,0 km/h (0 Bft)
29.08.2014 20:12 17,8 C 15,6 C 82 % 1015,1 hPa 0,0 l/m 0 min 0 min 0,0 UV-I 11 W/m 0,0 km/h (0 Bft)
29.08.2014 20:14 17,8 C 15,0 C 82 % 1015,1 hPa 0,0 l/m 0 min 0 min 0,0 UV-I 9 W/m 14,2 km/h (3 Bft)
29.08.2014 20:16 17,8 C 15,0 C 82 % 1015,1 hPa 0,0 l/m 0 min 0 min 0,0 UV-I 9 W/m 10,7 km/h (2 Bft)
29.08.2014 20:18 17,8 C 15,0 C 82 % 1015,2 hPa 0,0 l/m 0 min 0 min 0,0 UV-I 7 W/m 10,7 km/h (2 Bft)
29.08.2014 20:20 17,7 C 15,0 C 82 % 1015,2 hPa 0,0 l/m 0 min 0 min 0,0 UV-I 7 W/m 0,0 km/h (0 Bft)
29.08.2014 20:22 17,7 C 15,0 C 82 % 1015,2 hPa 0,0 l/m 0 min 0 min 0,0 UV-I 0 W/m 0,0 km/h (0 Bft)
29.08.2014 20:24 17,7 C 15,0 C 82 % 1015,1 hPa 0,0 l/m 0 min 0 min 0,0 UV-I 0 W/m 0,0 km/h (0 Bft)
29.08.2014 20:26 17,7 C 15,0 C 82 % 1015,2 hPa 0,0 l/m 0 min 0 min 0,0 UV-I 0 W/m 0,0 km/h (0 Bft)
29.08.2014 20:28 17,7 C 15,0 C 82 % 1015,1 hPa 0,0 l/m 0 min 0 min 0,0 UV-I 0 W/m 10,7 km/h (2 Bft)
29.08.2014 20:30 17,7 C 15,0 C 82 % 1015,2 hPa 0,0 l/m 0 min 0 min 0,0 UV-I 0 W/m 0,0 km/h (0 Bft)
29.08.2014 20:32 17,7 C 15,0 C 82 % 1015,2 hPa 0,0 l/m 0 min 0 min 0,0 UV-I 0 W/m 0,0 km/h (0 Bft)
29.08.2014 20:34 17,6 C 15,0 C 82 % 1015,2 hPa 0,0 l/m 0 min 0 min 0,0 UV-I 0 W/m 14,2 km/h (3 Bft)
29.08.2014 20:36 17,6 C 15,0 C 82 % 1015,2 hPa 0,0 l/m 0 min 0 min 0,0 UV-I 0 W/m 17,7 km/h (3 Bft)
29.08.2014 20:38 17,6 C 15,0 C 82 % 1015,2 hPa 0,0 l/m 0 min 0 min 0,0 UV-I 0 W/m 17,7 km/h (3 Bft)
29.08.2014 20:40 17,6 C 15,0 C 82 % 1015,2 hPa 0,0 l/m 0 min 0 min 0,0 UV-I 0 W/m 10,7 km/h (2 Bft)
29.08.2014 20:42 17,6 C 15,0 C 82 % 1015,2 hPa 0,0 l/m 0 min 0 min 0,0 UV-I 0 W/m 0,0 km/h (0 Bft)
29.08.2014 20:44 17,5 C 15,0 C 82 % 1015,2 hPa 0,0 l/m 0 min 0 min 0,0 UV-I 0 W/m 14,2 km/h (3 Bft)
29.08.2014 20:46 17,5 C 15,0 C 82 % 1015,2 hPa 0,0 l/m 0 min 0 min 0,0 UV-I 0 W/m 10,7 km/h (2 Bft)
29.08.2014 20:48 17,4 C 15,0 C 82 % 1015,2 hPa 0,0 l/m 0 min 0 min 0,0 UV-I 0 W/m 10,7 km/h (2 Bft)
29.08.2014 20:50 17,4 C 15,0 C 82 % 1015,3 hPa 0,0 l/m 0 min 0 min 0,0 UV-I 0 W/m 10,7 km/h (2 Bft)
29.08.2014 20:52 17,4 C 15,0 C 82 % 1015,3 hPa 0,0 l/m 0 min 0 min 0,0 UV-I 0 W/m 14,2 km/h (3 Bft)
29.08.2014 20:54 17,4 C 15,0 C 82 % 1015,2 hPa 0,0 l/m 0 min 0 min 0,0 UV-I 0 W/m 14,2 km/h (3 Bft)
29.08.2014 20:56 17,4 C 15,0 C 82 % 1015,2 hPa 0,0 l/m 0 min 0 min 0,0 UV-I 0 W/m 17,7 km/h (3 Bft)
29.08.2014 20:58 17,4 C 15,0 C 83 % 1015,3 hPa 0,0 l/m 0 min 0 min 0,0 UV-I 0 W/m 21,3 km/h (4 Bft)
29.08.2014 21:00 17,3 C 15,0 C 82 % 1015,3 hPa 0,0 l/m 0 min 0 min 0,0 UV-I 0 W/m 17,7 km/h (3 Bft)
29.08.2014 21:02 17,3 C 15,0 C 83 % 1015,3 hPa 0,0 l/m 0 min 0 min 0,0 UV-I 0 W/m 10,7 km/h (2 Bft)
29.08.2014 21:04 17,3 C 15,0 C 83 % 1015,2 hPa 0,0 l/m 0 min 0 min 0,0 UV-I 0 W/m 10,7 km/h (2 Bft)
29.08.2014 21:06 17,3 C 15,0 C 83 % 1015,3 hPa 0,0 l/m 0 min 0 min 0,0 UV-I 0 W/m 3,5 km/h (1 Bft)
29.08.2014 21:08 17,3 C 15,0 C 83 % 1015,3 hPa 0,0 l/m 0 min 0 min 0,0 UV-I 0 W/m 0,0 km/h (0 Bft)
29.08.2014 21:10 17,3 C 15,0 C 83 % 1015,3 hPa 0,0 l/m 0 min 0 min 0,0 UV-I 0 W/m 0,0 km/h (0 Bft)
29.08.2014 21:12 17,2 C 15,0 C 83 % 1015,3 hPa 0,0 l/m 0 min 0 min 0,0 UV-I 0 W/m 7,1 km/h (2 Bft)
29.08.2014 21:14 17,2 C 15,0 C 83 % 1015,3 hPa 0,0 l/m 0 min 0 min 0,0 UV-I 0 W/m 14,2 km/h (3 Bft)
29.08.2014 21:16 17,2 C 15,0 C 83 % 1015,3 hPa 0,0 l/m 0 min 0 min 0,0 UV-I 0 W/m 7,1 km/h (2 Bft)
29.08.2014 21:18 17,2 C 15,0 C 83 % 1015,3 hPa 0,0 l/m 0 min 0 min 0,0 UV-I 0 W/m 0,0 km/h (0 Bft)
29.08.2014 21:20 17,2 C 15,0 C 83 % 1015,3 hPa 0,0 l/m 0 min 0 min 0,0 UV-I 0 W/m 10,7 km/h (2 Bft)
29.08.2014 21:22 17,2 C 15,0 C 83 % 1015,4 hPa 0,0 l/m 0 min 0 min 0,0 UV-I 0 W/m 7,1 km/h (2 Bft)
29.08.2014 21:24 17,1 C 15,0 C 83 % 1015,4 hPa 0,0 l/m 0 min 0 min 0,0 UV-I 0 W/m 0,0 km/h (0 Bft)
29.08.2014 21:26 17,1 C 15,0 C 83 % 1015,5 hPa 0,0 l/m 0 min 0 min 0,0 UV-I 0 W/m 10,7 km/h (2 Bft)
29.08.2014 21:28 17,1 C 15,0 C 83 % 1015,5 hPa 0,0 l/m 0 min 0 min 0,0 UV-I 0 W/m 14,2 km/h (3 Bft)
29.08.2014 21:30 17,1 C 15,0 C 83 % 1015,4 hPa 0,0 l/m 0 min 0 min 0,0 UV-I 0 W/m 10,7 km/h (2 Bft)
29.08.2014 21:32 17,1 C 15,0 C 83 % 1015,5 hPa 0,0 l/m 0 min 0 min 0,0 UV-I 0 W/m 7,1 km/h (2 Bft)
29.08.2014 21:34 17,1 C 15,0 C 83 % 1015,5 hPa 0,0 l/m 0 min 0 min 0,0 UV-I 0 W/m 10,7 km/h (2 Bft)
29.08.2014 21:36 17,1 C 15,0 C 83 % 1015,5 hPa 0,0 l/m 0 min 0 min 0,0 UV-I 0 W/m 0,0 km/h (0 Bft)
29.08.2014 21:38 17,1 C 15,0 C 83 % 1015,5 hPa 0,0 l/m 0 min 0 min 0,0 UV-I 0 W/m 0,0 km/h (0 Bft)
29.08.2014 21:40 17,0 C 15,0 C 83 % 1015,5 hPa 0,0 l/m 0 min 0 min 0,0 UV-I 0 W/m 0,0 km/h (0 Bft)
29.08.2014 21:42 17,0 C 15,0 C 83 % 1015,5 hPa 0,0 l/m 0 min 0 min 0,0 UV-I 0 W/m 10,7 km/h (2 Bft)
29.08.2014 21:44 17,0 C 15,0 C 83 % 1015,5 hPa 0,0 l/m 0 min 0 min 0,0 UV-I 0 W/m 3,5 km/h (1 Bft)
29.08.2014 21:46 17,0 C 15,0 C 83 % 1015,5 hPa 0,0 l/m 0 min 0 min 0,0 UV-I 0 W/m 7,1 km/h (2 Bft)
29.08.2014 21:48 17,0 C 15,0 C 83 % 1015,6 hPa 0,0 l/m 0 min 0 min 0,0 UV-I 0 W/m 0,0 km/h (0 Bft)
29.08.2014 21:50 17,0 C 15,0 C 83 % 1015,6 hPa 0,0 l/m 0 min 0 min 0,0 UV-I 0 W/m 17,7 km/h (3 Bft)
29.08.2014 21:52 16,9 C 15,0 C 83 % 1015,6 hPa 0,0 l/m 0 min 0 min 0,0 UV-I 0 W/m 7,1 km/h (2 Bft)
29.08.2014 21:54 16,9 C 15,0 C 84 % 1015,6 hPa 0,0 l/m 0 min 0 min 0,0 UV-I 0 W/m 14,2 km/h (3 Bft)
29.08.2014 21:56 16,9 C 15,0 C 84 % 1015,6 hPa 0,0 l/m 0 min 0 min 0,0 UV-I 0 W/m 3,5 km/h (1 Bft)
29.08.2014 21:58 16,9 C 15,0 C 84 % 1015,6 hPa 0,0 l/m 0 min 0 min 0,0 UV-I 0 W/m 17,7 km/h (3 Bft)
29.08.2014 22:00 16,9 C 15,0 C 84 % 1015,6 hPa 0,0 l/m 0 min 0 min 0,0 UV-I 0 W/m 10,7 km/h (2 Bft)
29.08.2014 22:02 16,9 C 15,0 C 84 % 1015,6 hPa 0,0 l/m 0 min 0 min 0,0 UV-I 0 W/m 17,7 km/h (3 Bft)
29.08.2014 22:04 16,9 C 15,0 C 84 % 1015,6 hPa 0,0 l/m 0 min 0 min 0,0 UV-I 0 W/m 14,2 km/h (3 Bft)
29.08.2014 22:06 16,9 C 15,0 C 84 % 1015,6 hPa 0,0 l/m 0 min 0 min 0,0 UV-I 0 W/m 14,2 km/h (3 Bft)
29.08.2014 22:08 16,9 C 15,0 C 84 % 1015,6 hPa 0,0 l/m 0 min 0 min 0,0 UV-I 0 W/m 10,7 km/h (2 Bft)
29.08.2014 22:10 16,9 C 15,0 C 84 % 1015,6 hPa 0,0 l/m 0 min 0 min 0,0 UV-I 0 W/m 21,3 km/h (4 Bft)
29.08.2014 22:12 16,9 C 15,0 C 84 % 1015,6 hPa 0,0 l/m 0 min 0 min 0,0 UV-I 0 W/m 3,5 km/h (1 Bft)
29.08.2014 22:14 16,9 C 15,0 C 84 % 1015,6 hPa 0,0 l/m 0 min 0 min 0,0 UV-I 0 W/m 0,0 km/h (0 Bft)
29.08.2014 22:16 16,9 C 15,6 C 84 % 1015,7 hPa 0,0 l/m 0 min 0 min 0,0 UV-I 0 W/m 17,7 km/h (3 Bft)
29.08.2014 22:18 16,9 C 15,6 C 84 % 1015,7 hPa 0,0 l/m 0 min 0 min 0,0 UV-I 0 W/m 14,2 km/h (3 Bft)
29.08.2014 22:20 16,9 C 15,6 C 84 % 1015,7 hPa 0,0 l/m 0 min 0 min 0,0 UV-I 0 W/m 17,7 km/h (3 Bft)
29.08.2014 22:22 16,9 C 15,6 C 84 % 1015,7 hPa 0,0 l/m 0 min 0 min 0,0 UV-I 0 W/m 14,2 km/h (3 Bft)
29.08.2014 22:24 16,9 C 15,6 C 84 % 1015,7 hPa 0,0 l/m 0 min 0 min 0,0 UV-I 0 W/m 24,7 km/h (4 Bft)
29.08.2014 22:26 16,9 C 15,6 C 84 % 1015,7 hPa 0,0 l/m 0 min 0 min 0,0 UV-I 0 W/m 17,7 km/h (3 Bft)
29.08.2014 22:28 16,9 C 15,6 C 84 % 1015,8 hPa 0,0 l/m 0 min 0 min 0,0 UV-I 0 W/m 21,3 km/h (4 Bft)
29.08.2014 22:30 16,9 C 15,6 C 84 % 1015,8 hPa 0,0 l/m 0 min 0 min 0,0 UV-I 0 W/m 17,7 km/h (3 Bft)
29.08.2014 22:32 16,9 C 15,6 C 84 % 1015,8 hPa 0,0 l/m 0 min 0 min 0,0 UV-I 0 W/m 17,7 km/h (3 Bft)
29.08.2014 22:34 16,9 C 15,6 C 84 % 1015,8 hPa 0,0 l/m 0 min 0 min 0,0 UV-I 0 W/m 21,3 km/h (4 Bft)
29.08.2014 22:36 17,0 C 15,6 C 84 % 1015,8 hPa 0,0 l/m 0 min 0 min 0,0 UV-I 0 W/m 14,2 km/h (3 Bft)
29.08.2014 22:38 17,0 C 15,6 C 84 % 1015,9 hPa 0,0 l/m 0 min 2 min 0,0 UV-I 0 W/m 28,2 km/h (4 Bft)
29.08.2014 22:40 17,0 C 15,6 C 84 % 1015,8 hPa 0,0 l/m 0 min 2 min 0,0 UV-I 0 W/m 28,2 km/h (4 Bft)
29.08.2014 22:42 17,1 C 15,6 C 84 % 1015,8 hPa 0,0 l/m 0 min 2 min 0,0 UV-I 0 W/m 17,7 km/h (3 Bft)
29.08.2014 22:44 17,1 C 15,6 C 84 % 1015,8 hPa 0,0 l/m 0 min 2 min 0,0 UV-I 0 W/m 28,2 km/h (4 Bft)
29.08.2014 22:46 17,1 C 15,6 C 84 % 1015,8 hPa 0,0 l/m 0 min 0 min 0,0 UV-I 0 W/m 28,2 km/h (4 Bft)
29.08.2014 22:48 17,1 C 15,6 C 84 % 1015,8 hPa 0,0 l/m 0 min 0 min 0,0 UV-I 0 W/m 24,7 km/h (4 Bft)
29.08.2014 22:50 17,1 C 15,6 C 84 % 1015,8 hPa 0,0 l/m 0 min 0 min 0,0 UV-I 0 W/m 14,2 km/h (3 Bft)
29.08.2014 22:52 17,1 C 15,6 C 84 % 1015,9 hPa 0,0 l/m 0 min 0 min 0,0 UV-I 0 W/m 24,7 km/h (4 Bft)
29.08.2014 22:54 17,1 C 15,6 C 84 % 1015,9 hPa 0,0 l/m 0 min 0 min 0,0 UV-I 0 W/m 17,7 km/h (3 Bft)
29.08.2014 22:56 17,1 C 15,6 C 84 % 1015,9 hPa 0,0 l/m 0 min 0 min 0,0 UV-I 0 W/m 10,7 km/h (2 Bft)
29.08.2014 22:58 17,1 C 15,6 C 84 % 1015,9 hPa 0,0 l/m 0 min 0 min 0,0 UV-I 0 W/m 17,7 km/h (3 Bft)
29.08.2014 23:00 17,2 C 15,6 C 84 % 1015,9 hPa 0,0 l/m 0 min 0 min 0,0 UV-I 0 W/m 24,7 km/h (4 Bft)
29.08.2014 23:02 17,2 C 15,6 C 83 % 1016,0 hPa 0,0 l/m 0 min 0 min 0,0 UV-I 0 W/m 14,2 km/h (3 Bft)
29.08.2014 23:04 17,1 C 15,6 C 83 % 1015,9 hPa 0,0 l/m 0 min 0 min 0,0 UV-I 0 W/m 21,3 km/h (4 Bft)
29.08.2014 23:06 17,2 C 15,6 C 83 % 1016,0 hPa 0,0 l/m 0 min 0 min 0,0 UV-I 0 W/m 17,7 km/h (3 Bft)
29.08.2014 23:08 17,2 C 15,6 C 83 % 1016,0 hPa 0,0 l/m 0 min 0 min 0,0 UV-I 0 W/m 17,7 km/h (3 Bft)
29.08.2014 23:10 17,1 C 15,6 C 83 % 1016,0 hPa 0,0 l/m 0 min 0 min 0,0 UV-I 0 W/m 28,2 km/h (4 Bft)
29.08.2014 23:12 17,2 C 15,6 C 83 % 1016,1 hPa 0,0 l/m 0 min 0 min 0,0 UV-I 0 W/m 17,7 km/h (3 Bft)
29.08.2014 23:14 17,2 C 15,6 C 83 % 1016,1 hPa 0,0 l/m 0 min 0 min 0,0 UV-I 0 W/m 21,3 km/h (4 Bft)
29.08.2014 23:16 17,2 C 15,6 C 83 % 1016,1 hPa 0,0 l/m 0 min 0 min 0,0 UV-I 0 W/m 24,7 km/h (4 Bft)
29.08.2014 23:18 17,2 C 15,6 C 83 % 1016,1 hPa 0,0 l/m 0 min 0 min 0,0 UV-I 0 W/m 17,7 km/h (3 Bft)
29.08.2014 23:20 17,2 C 15,6 C 83 % 1016,1 hPa 0,0 l/m 0 min 0 min 0,0 UV-I 0 W/m 17,7 km/h (3 Bft)
29.08.2014 23:22 17,1 C 15,0 C 83 % 1016,1 hPa 0,0 l/m 0 min 0 min 0,0 UV-I 0 W/m 21,3 km/h (4 Bft)
29.08.2014 23:24 17,1 C 15,0 C 83 % 1016,2 hPa 0,0 l/m 0 min 0 min 0,0 UV-I 0 W/m 14,2 km/h (3 Bft)
29.08.2014 23:26 17,1 C 15,0 C 83 % 1016,2 hPa 0,0 l/m 0 min 0 min 0,0 UV-I 0 W/m 24,7 km/h (4 Bft)
29.08.2014 23:28 17,1 C 15,0 C 83 % 1016,2 hPa 0,0 l/m 0 min 0 min 0,0 UV-I 0 W/m 24,7 km/h (4 Bft)
29.08.2014 23:30 17,1 C 15,0 C 83 % 1016,2 hPa 0,0 l/m 0 min 0 min 0,0 UV-I 0 W/m 21,3 km/h (4 Bft)
29.08.2014 23:32 17,1 C 15,0 C 83 % 1016,2 hPa 0,0 l/m 0 min 0 min 0,0 UV-I 0 W/m 10,7 km/h (2 Bft)
29.08.2014 23:34 17,1 C 15,0 C 83 % 1016,2 hPa 0,0 l/m 0 min 0 min 0,0 UV-I 0 W/m 17,7 km/h (3 Bft)
29.08.2014 23:36 17,1 C 15,0 C 83 % 1016,2 hPa 0,0 l/m 0 min 0 min 0,0 UV-I 0 W/m 17,7 km/h (3 Bft)
29.08.2014 23:38 17,1 C 15,0 C 83 % 1016,2 hPa 0,0 l/m 0 min 0 min 0,0 UV-I 0 W/m 21,3 km/h (4 Bft)
29.08.2014 23:40 17,1 C 15,0 C 83 % 1016,2 hPa 0,0 l/m 0 min 0 min 0,0 UV-I 0 W/m 21,3 km/h (4 Bft)
29.08.2014 23:42 17,1 C 15,0 C 84 % 1016,2 hPa 0,0 l/m 0 min 0 min 0,0 UV-I 0 W/m 24,7 km/h (4 Bft)
29.08.2014 23:44 17,0 C 15,0 C 84 % 1016,3 hPa 0,0 l/m 0 min 0 min 0,0 UV-I 0 W/m 17,7 km/h (3 Bft)
29.08.2014 23:46 17,0 C 15,0 C 84 % 1016,3 hPa 0,0 l/m 0 min 0 min 0,0 UV-I 0 W/m 21,3 km/h (4 Bft)
29.08.2014 23:48 17,0 C 15,0 C 84 % 1016,3 hPa 0,0 l/m 0 min 0 min 0,0 UV-I 0 W/m 24,7 km/h (4 Bft)
29.08.2014 23:50 17,0 C 15,0 C 84 % 1016,3 hPa 0,0 l/m 0 min 0 min 0,0 UV-I 0 W/m 21,3 km/h (4 Bft)
29.08.2014 23:52 17,0 C 15,0 C 84 % 1016,3 hPa 0,0 l/m 0 min 0 min 0,0 UV-I 0 W/m 24,7 km/h (4 Bft)
29.08.2014 23:54 16,9 C 15,0 C 84 % 1016,3 hPa 0,0 l/m 0 min 0 min 0,0 UV-I 0 W/m 31,7 km/h (5 Bft)
29.08.2014 23:56 16,9 C 15,0 C 84 % 1016,3 hPa 0,0 l/m 0 min 0 min 0,0 UV-I 0 W/m 24,7 km/h (4 Bft)
29.08.2014 23:58 16,9 C 15,0 C 84 % 1016,3 hPa 0,0 l/m 0 min 0 min 0,0 UV-I 0 W/m 17,7 km/h (3 Bft)
_ Min-Zeit 06:36 05:40 17:00 00:00 - - - - - 00:44
Minimum _ 14,4 C 12,8 C 74 % 1013,6 hPa - - - - - 0,0 km/h (0 Bft)
_ Max-Zeit 17:16 16:26 00:00 13:54 03:42 08:50 00:18 13:22 15:26 13:38
Maximum _ 19,8 C 18,9 C 97 % 1016,3 hPa 0,2 l/m 2 min 2 min 2,7 UV-I 492 W/m 49,5 km/h
SW (6 Bft)
Durchschnitt _ 17,1 C 15,6 C 89 % 1015,2 hPa #0,4 l/m #3:20 h #1:36 h 1,2 UV-I 181 W/m 17,8 km/h (3 Bft)
© 2014 W. Hausmann